Latitude: N 50° 09' 49" Longitude: W 05° 11' 53" Elevation: 168m ASL

There are 31 visitors online

Adverts

<- Previous Day | Today | Next Day ->

All Data for 13 November 2018

Time
A - D
Temp
A - D
Dew Point
A - D
Humidity
A - D
Pressure
A - D
Wind
A - D
Wind Dir Gust
A - D
Rain Rate
A - D
Rain Total
00:00 9.7 8.5 92 1014.0 9.2 SW 16.8 0.0 0.0
00:01 9.7 8.5 92 1013.8 9.2 SW 16.8 0.0 0.0
00:02 9.7 8.5 92 1013.9 9.2 SW 16.8 0.0 0.0
00:03 9.7 8.5 92 1013.8 9.2 SW 16.8 0.0 0.0
00:04 9.7 8.5 92 1013.9 9.2 SW 16.8 0.0 0.0
00:05 9.7 8.5 92 1013.9 9.2 SW 16.8 0.0 0.0
00:06 9.5 8.3 92 1014.1 10.7 S 15.9 0.0 0.0
00:07 9.5 8.3 92 1013.9 12.1 S 12.1 0.0 0.0
00:08 9.5 8.3 92 1013.9 13.0 SW 13.0 0.0 0.0
00:09 9.5 8.3 92 1014.0 10.7 SW 13.0 0.0 0.0
00:10 9.4 8.2 92 1014.0 13.0 SW 13.0 0.0 0.0
00:11 9.4 8.2 92 1013.9 9.2 S 13.0 0.0 0.0
00:12 9.4 8.2 92 1014.0 10.7 S 13.0 0.0 0.0
00:13 9.4 8.2 92 1014.0 11.4 SW 13.0 0.0 0.0
00:14 9.4 8.2 92 1014.0 11.4 SW 13.0 0.0 0.0
00:16 9.3 8.1 92 1014.1 12.1 SW 13.0 0.0 0.0
00:17 9.3 8.1 92 1014.1 13.0 SW 13.0 0.0 0.0
00:18 9.3 8.1 92 1014.1 12.1 SW 13.0 0.0 0.0
00:19 9.3 8.1 92 1014.2 9.2 SW 13.0 0.0 0.0
00:20 9.3 8.1 92 1014.2 9.2 SW 13.0 0.0 0.0
00:21 9.3 8.1 92 1014.1 12.1 SW 13.6 0.0 0.0
00:22 9.3 8.1 92 1014.1 13.6 WSW 13.6 0.0 0.0
00:23 9.4 8.2 92 1014.1 13.0 SW 13.6 0.0 0.0
00:24 9.4 8.2 92 1014.1 7.6 SW 13.6 0.0 0.0
00:25 9.4 8.2 92 1014.2 10.7 SW 13.6 0.0 0.0
00:26 9.4 8.2 92 1014.2 10.7 S 13.6 0.0 0.0
00:27 9.4 8.2 92 1014.2 9.8 S 13.6 0.0 0.0
00:28 9.4 8.2 92 1014.3 10.7 SW 13.6 0.0 0.0
00:29 9.4 8.2 92 1014.2 8.3 SW 13.6 0.0 0.0
00:30 9.4 8.2 92 1014.3 9.8 NW 13.6 0.0 0.0
00:31 9.5 8.3 92 1014.2 10.7 S 13.6 0.0 0.0
00:32 9.5 8.3 92 1014.2 10.7 SW 13.0 0.0 0.0
00:33 9.4 8.2 92 1014.2 7.6 SSW 10.7 0.0 0.0
00:35 9.4 8.2 92 1014.2 7.6 SW 12.1 0.0 0.0
00:36 9.4 8.2 92 1014.3 9.8 SW 12.1 0.0 0.0
00:37 9.4 8.2 92 1014.4 9.8 SSW 12.1 0.0 0.0
00:38 9.4 8.2 92 1014.3 9.2 SW 12.1 0.0 0.0
00:39 9.4 8.2 92 1014.3 9.2 SW 12.1 0.0 0.0
00:40 9.4 8.2 92 1014.5 9.2 SW 12.1 0.0 0.0
00:41 9.4 8.2 92 1014.4 8.3 SW 12.1 0.0 0.0
00:42 9.4 8.2 92 1014.4 6.9 S 12.1 0.0 0.0
00:43 9.4 8.3 93 1014.5 8.3 SW 12.1 0.0 0.0
00:44 9.4 8.3 93 1014.6 6.9 SW 12.1 0.0 0.0
00:45 9.4 8.3 93 1014.6 6.9 SW 9.8 0.0 0.0
00:46 9.4 8.2 92 1014.4 8.3 SW 10.7 0.0 0.0
00:47 9.4 8.3 93 1014.5 8.3 SW 10.7 0.0 0.0
00:48 9.4 8.2 92 1014.5 13.0 WSW 13.0 0.0 0.0
00:49 9.4 8.3 93 1014.5 9.8 SW 13.0 0.0 0.0
00:50 9.4 8.3 93 1014.6 7.6 SW 13.0 0.0 0.0
00:51 9.4 8.3 93 1014.6 9.8 S 13.0 0.0 0.0
00:52 9.5 8.4 93 1014.4 7.6 S 13.0 0.0 0.0
00:54 9.5 8.4 93 1014.5 9.8 S 13.0 0.0 0.0
00:55 9.5 8.4 93 1014.6 8.3 S 13.0 0.0 0.0
00:56 9.5 8.4 93 1014.7 6.9 SW 13.0 0.0 0.0
00:57 9.5 8.4 93 1014.7 9.2 S 13.0 0.0 0.0
00:58 9.5 8.4 93 1014.7 8.3 SW 13.0 0.0 0.0
00:59 9.5 8.4 93 1014.8 8.3 S 9.8 0.0 0.0
01:00 9.5 8.4 93 1014.7 8.3 SE 9.8 0.0 0.0
01:01 9.5 8.4 93 1014.7 8.3 SE 9.8 0.0 0.0
01:02 9.5 8.4 93 1014.7 8.3 SE 9.8 0.0 0.0
01:03 9.5 8.4 93 1014.8 8.3 SE 9.8 0.0 0.0
01:04 9.5 8.4 93 1014.8 13.0 N 13.0 0.0 0.0
01:05 9.5 8.4 93 1014.8 9.2 S 13.0 0.0 0.0
01:06 9.5 8.4 93 1014.9 9.8 S 13.0 0.0 0.0
01:07 9.5 8.4 93 1014.9 11.4 S 13.0 0.0 0.0
01:08 9.5 8.4 93 1014.8 9.2 SW 13.0 0.0 0.0
01:09 9.5 8.4 93 1014.8 9.8 WNW 13.0 0.0 0.0
01:10 9.5 8.4 93 1015.0 7.6 S 13.0 0.0 0.0
01:11 9.5 8.4 93 1014.8 8.3 S 13.0 0.0 0.0
01:12 9.5 8.4 93 1014.7 8.3 SW 13.0 0.0 0.0
01:13 9.5 8.4 93 1014.9 9.8 WSW 13.0 0.0 0.0
01:14 9.5 8.4 93 1014.9 6.9 S 13.0 0.0 0.0
01:15 9.5 8.4 93 1014.9 6.0 SW 13.0 0.0 0.0
01:16 9.5 8.4 93 1015.0 9.2 WSW 13.0 0.0 0.0
01:17 9.5 8.4 93 1014.8 9.2 SW 13.0 0.0 0.0
01:18 9.5 8.4 93 1015.0 10.7 W 13.0 0.0 0.0
01:19 9.5 8.4 93 1015.1 7.6 SW 13.0 0.0 0.0
01:20 9.5 8.4 93 1015.0 9.2 SW 13.0 0.0 0.0
01:21 9.4 8.3 93 1015.1 7.6 S 13.0 0.0 0.0
01:23 9.4 8.3 93 1014.9 11.4 SW 11.4 0.0 0.0
01:24 9.4 8.3 93 1015.0 8.3 SW 11.4 0.0 0.0
01:25 9.5 8.4 93 1015.0 8.3 S 11.4 0.0 0.0
01:26 9.4 8.3 93 1015.1 9.8 SW 11.4 0.0 0.0
01:27 9.5 8.4 93 1015.1 9.8 S 11.4 0.0 0.0
01:28 9.4 8.3 93 1015.2 9.8 S 11.4 0.0 0.0
01:29 9.4 8.3 93 1015.1 11.4 SW 11.4 0.0 0.0
01:30 9.4 8.3 93 1015.1 9.8 SW 11.4 0.0 0.0
01:31 9.5 8.4 93 1015.2 9.2 SW 11.4 0.0 0.0
01:32 9.5 8.4 93 1015.2 8.3 S 11.4 0.0 0.0
01:33 9.5 8.4 93 1015.1 6.0 SW 11.4 0.0 0.0
01:34 9.5 8.4 93 1015.4 6.0 S 11.4 0.0 0.0
01:35 9.5 8.4 93 1015.3 8.3 SW 11.4 0.0 0.0
01:36 9.5 8.4 93 1015.3 7.6 S 11.4 0.0 0.0
01:37 9.5 8.4 93 1015.3 7.6 SW 11.4 0.0 0.0
01:38 9.5 8.4 93 1015.3 7.6 S 11.4 0.0 0.0
01:39 9.5 8.4 93 1015.4 9.2 SW 9.8 0.0 0.0
01:41 9.5 8.4 93 1015.2 8.3 SW 9.8 0.0 0.0
01:42 9.5 8.4 93 1015.3 6.9 SW 9.8 0.0 0.0
01:43 9.5 8.4 93 1015.4 7.6 SW 9.2 0.0 0.0
01:44 9.5 8.4 93 1015.4 9.8 SW 9.8 0.0 0.0
01:45 9.5 8.4 93 1015.4 9.8 SW 9.8 0.0 0.0
01:46 9.5 8.4 93 1015.6 8.3 SW 9.8 0.0 0.0
01:47 9.5 8.4 93 1015.3 10.7 SW 10.7 0.0 0.0
01:48 9.5 8.4 93 1015.4 13.0 S 13.0 0.0 0.0
01:49 9.5 8.4 93 1015.6 7.6 SW 13.0 0.0 0.0
01:50 9.5 8.4 93 1015.6 10.7 SW 13.0 0.0 0.0
01:51 9.5 8.4 93 1015.5 9.2 S 13.0 0.0 0.0
01:52 9.5 8.4 93 1015.5 6.9 SW 13.0 0.0 0.0
01:53 9.5 8.4 93 1015.6 9.8 SW 13.0 0.0 0.0
01:54 9.6 8.5 93 1015.4 10.7 SW 13.0 0.0 0.0
01:55 9.6 8.5 93 1015.7 10.7 SE 13.0 0.0 0.0
01:56 9.6 8.5 93 1015.6 7.6 SW 13.0 0.0 0.0
01:57 9.6 8.5 93 1015.5 7.6 S 13.0 0.0 0.0
01:58 9.6 8.5 93 1015.6 7.6 S 10.7 0.0 0.0
01:59 9.5 8.4 93 1015.6 7.6 SW 10.7 0.0 0.0
02:01 9.5 8.4 93 1015.6 7.6 SW 10.7 0.0 0.0
02:02 9.5 8.4 93 1015.5 7.6 SW 10.7 0.0 0.0
02:03 9.5 8.4 93 1015.5 7.6 SW 10.7 0.0 0.0
02:04 9.5 8.4 93 1015.5 7.6 SW 10.7 0.0 0.0
02:05 9.5 8.4 93 1015.7 7.6 SW 10.7 0.0 0.0
02:06 9.5 8.4 93 1015.8 8.3 SW 8.3 0.0 0.0
02:07 9.5 8.4 93 1015.8 9.2 SW 9.2 0.0 0.0
02:08 9.5 8.4 93 1015.8 8.3 SW 9.2 0.0 0.0
02:09 9.5 8.4 93 1015.7 11.4 SW 11.4 0.0 0.0
02:10 9.5 8.4 93 1015.8 9.2 SW 11.4 0.0 0.0
02:11 9.5 8.4 93 1015.7 7.6 SW 11.4 0.0 0.0
02:12 9.5 8.4 93 1015.7 6.9 S 11.4 0.0 0.0
02:13 9.5 8.4 93 1015.8 7.6 S 11.4 0.0 0.0
02:14 9.5 8.4 93 1015.8 9.2 NNE 11.4 0.0 0.0
02:15 9.5 8.4 93 1015.8 7.6 S 11.4 0.0 0.0
02:16 9.5 8.4 93 1015.8 6.9 SW 11.4 0.0 0.0
02:17 9.5 8.4 93 1015.8 7.6 NNW 11.4 0.0 0.0
02:18 9.4 8.3 93 1015.8 8.3 SW 11.4 0.0 0.0
02:20 9.4 8.3 93 1015.8 6.0 WSW 10.7 0.0 0.0
02:21 9.4 8.3 93 1015.8 7.6 SW 10.7 0.0 0.0
02:22 9.4 8.3 93 1016.0 6.0 SW 10.7 0.0 0.0
02:23 9.4 8.3 93 1016.0 6.0 SW 10.7 0.0 0.0
02:24 9.4 8.3 93 1015.9 6.9 SSW 10.7 0.0 0.0
02:25 9.4 8.3 93 1015.8 5.4 SW 9.2 0.0 0.0
02:26 9.3 8.2 93 1015.8 7.6 SW 8.3 0.0 0.0
02:27 9.3 8.2 93 1016.0 5.4 SW 8.3 0.0 0.0
02:28 9.3 8.2 93 1016.0 4.5 SW 8.3 0.0 0.0
02:29 9.3 8.2 93 1016.0 7.6 SW 8.3 0.0 0.0
02:30 9.3 8.2 93 1016.0 7.6 SW 7.6 0.0 0.0
02:31 9.3 8.2 93 1016.0 9.2 SW 9.2 0.0 0.0
02:32 9.3 8.2 93 1016.1 8.3 S 9.2 0.0 0.0
02:33 9.4 8.3 93 1016.0 8.3 S 9.2 0.0 0.0
02:34 9.4 8.3 93 1016.1 8.3 SW 9.2 0.0 0.0
02:35 9.4 8.3 93 1016.0 6.9 NW 9.2 0.0 0.0
02:36 9.4 8.3 93 1016.1 8.3 SSW 9.2 0.0 0.0
02:38 9.4 8.3 93 1015.9 7.6 S 9.2 0.0 0.0
02:39 9.4 8.3 93 1016.0 6.9 S 9.2 0.0 0.0
02:40 9.4 8.3 93 1016.0 7.6 SE 9.2 0.0 0.0
02:41 9.4 8.3 93 1016.0 6.9 SW 8.3 0.0 0.0
02:42 9.4 8.3 93 1016.1 7.6 S 8.3 0.0 0.0
02:43 9.4 8.3 93 1016.1 6.9 SW 8.3 0.0 0.0
02:44 9.4 8.5 94 1016.0 7.6 SW 8.3 0.0 0.0
02:45 9.4 8.5 94 1016.0 9.8 SW 9.8 0.0 0.0
02:46 9.4 8.3 93 1016.1 9.2 SW 9.8 0.0 0.0
02:47 9.4 8.5 94 1016.2 9.2 SW 9.8 0.0 0.0
02:48 9.4 8.3 93 1015.9 7.6 S 9.8 0.0 0.0
02:49 9.4 8.5 94 1016.0 7.6 SW 9.8 0.0 0.0
02:50 9.3 8.2 93 1016.1 7.6 S 9.8 0.0 0.0
02:51 9.3 8.4 94 1016.1 6.9 S 9.8 0.0 0.0
02:52 9.3 8.4 94 1016.2 8.3 SW 9.8 0.0 0.0
02:53 9.3 8.4 94 1016.2 6.0 SW 9.8 0.0 0.0
02:54 9.3 8.4 94 1016.0 5.4 SW 9.8 0.0 0.0
02:55 9.3 8.2 93 1016.2 9.8 SW 9.8 0.0 0.0
02:57 9.2 8.3 94 1016.3 7.6 SW 9.8 0.0 0.0
02:58 9.2 8.1 93 1016.3 6.9 S 9.8 0.0 0.0
02:59 9.2 8.3 94 1016.4 5.4 SW 9.8 0.0 0.0
03:00 9.2 8.3 94 1016.3 5.4 SW 9.8 0.0 0.0
03:01 9.2 8.3 94 1016.3 5.4 SW 9.8 0.0 0.0
03:02 9.2 8.3 94 1016.3 5.4 SW 9.8 0.0 0.0
03:03 9.2 8.3 94 1016.3 5.4 SW 9.8 0.0 0.0
03:04 9.2 8.3 94 1016.3 5.4 SW 9.8 0.0 0.0
03:05 9.2 8.3 94 1016.3 5.4 SW 9.8 0.0 0.0
03:06 9.1 8.0 93 1016.3 3.8 W 9.2 0.0 0.0
03:07 9.1 8.0 93 1016.2 6.9 S 7.6 0.0 0.0
03:08 9.1 8.2 94 1016.3 7.6 SW 7.6 0.0 0.0
03:09 9.1 8.0 93 1016.4 6.0 SSW 8.3 0.0 0.0
03:10 9.1 8.0 93 1016.3 6.9 S 8.3 0.0 0.0
03:11 9.1 8.0 93 1016.4 6.9 SW 8.3 0.0 0.0
03:12 9.0 8.1 94 1016.3 6.9 SW 8.3 0.0 0.0
03:13 9.0 8.1 94 1016.4 6.9 N 8.3 0.0 0.0
03:14 9.0 8.1 94 1016.4 6.0 S 8.3 0.0 0.0
03:15 9.0 8.1 94 1016.3 4.5 SW 8.3 0.0 0.0
03:16 9.0 8.1 94 1016.4 6.0 S 8.3 0.0 0.0
03:17 9.0 8.1 94 1016.4 6.9 S 8.3 0.0 0.0
03:19 9.0 8.1 94 1016.3 6.0 S 6.9 0.0 0.0
03:20 9.0 8.1 94 1016.4 5.4 SW 6.9 0.0 0.0
03:21 9.0 8.1 94 1016.4 5.4 SW 6.9 0.0 0.0
03:22 9.0 8.1 94 1016.4 6.9 SW 6.9 0.0 0.0
03:23 9.0 8.1 94 1016.3 6.9 S 6.9 0.0 0.0
03:24 9.0 8.1 94 1016.3 6.9 S 6.9 0.0 0.0
03:25 8.9 8.0 94 1016.5 6.0 S 6.9 0.0 0.0
03:26 8.9 8.0 94 1016.4 6.0 S 7.6 0.0 0.0
03:27 8.9 8.0 94 1016.4 6.9 SW 7.6 0.0 0.0
03:28 8.9 8.0 94 1016.5 6.0 SW 7.6 0.0 0.0
03:29 8.9 8.0 94 1016.5 7.6 SW 7.6 0.0 0.0
03:30 8.9 8.0 94 1016.6 6.0 S 7.6 0.0 0.0
03:31 8.9 8.0 94 1016.5 6.9 SSW 7.6 0.0 0.0
03:32 8.9 8.0 94 1016.4 7.6 SW 7.6 0.0 0.0
03:33 8.9 8.0 94 1016.7 7.6 SW 7.6 0.0 0.0
03:34 8.9 8.0 94 1016.5 7.6 SW 7.6 0.0 0.0
03:36 8.9 8.0 94 1016.6 6.0 S 7.6 0.0 0.0
03:37 8.9 8.0 94 1016.6 6.9 SW 7.6 0.0 0.0
03:38 8.9 8.0 94 1016.6 6.9 SW 7.6 0.0 0.0
03:40 8.9 8.0 94 1016.6 4.5 SW 7.6 0.0 0.0
03:41 8.9 8.0 94 1016.6 7.6 SW 7.6 0.0 0.0
03:42 8.9 8.0 94 1016.6 6.0 SW 7.6 0.0 0.0
03:43 8.9 8.0 94 1016.6 6.0 SW 7.6 0.0 0.0
03:44 8.9 8.0 94 1016.6 5.4 SW 7.6 0.0 0.0
03:45 8.8 7.9 94 1016.8 6.9 SW 7.6 0.0 0.0
03:46 8.9 8.0 94 1016.7 5.4 SW 7.6 0.0 0.0
03:47 8.8 7.9 94 1016.7 5.4 SW 7.6 0.0 0.0
03:48 8.8 7.9 94 1016.7 6.0 SW 7.6 0.0 0.0
03:49 8.8 7.9 94 1016.7 6.0 SSW 7.6 0.0 0.0
03:50 8.8 7.9 94 1016.7 4.5 S 7.6 0.0 0.0
03:51 8.8 7.9 94 1016.7 4.5 S 7.6 0.0 0.0
03:52 8.8 7.9 94 1016.7 4.5 S 6.9 0.0 0.0
03:53 8.8 7.9 94 1016.8 5.4 SW 6.9 0.0 0.0
03:54 8.7 7.8 94 1016.8 5.4 SW 6.9 0.0 0.0
03:55 8.7 7.8 94 1016.9 6.0 S 6.0 0.0 0.0
03:56 8.7 7.8 94 1016.9 3.8 SW 6.0 0.0 0.0
03:57 8.7 7.8 94 1016.9 6.0 S 6.0 0.0 0.0
03:59 8.7 7.8 94 1017.0 5.4 SW 9.8 0.0 0.0
04:00 8.7 7.8 94 1016.9 5.4 SW 9.8 0.0 0.0
04:01 8.7 7.8 94 1016.8 5.4 SW 9.8 0.0 0.0
04:02 8.7 7.8 94 1017.0 5.4 SW 9.8 0.0 0.0
04:03 8.7 7.8 94 1017.0 5.4 SW 9.8 0.0 0.0
04:04 8.7 7.8 94 1017.0 5.4 SW 9.8 0.0 0.0
04:05 8.7 7.8 94 1017.0 5.4 SW 9.8 0.0 0.0
04:06 8.6 7.7 94 1017.1 7.6 SW 9.8 0.0 0.0
04:07 8.6 7.7 94 1017.1 5.4 SW 9.8 0.0 0.0
04:08 8.6 7.7 94 1017.1 9.2 WSW 9.8 0.0 0.0
04:09 8.6 7.7 94 1017.1 6.0 NW 9.2 0.0 0.0
04:10 8.6 7.7 94 1017.0 5.4 SW 9.2 0.0 0.0
04:11 8.5 7.6 94 1017.1 7.6 SW 9.2 0.0 0.0
04:12 8.6 7.7 94 1017.1 3.8 SW 9.2 0.0 0.0
04:13 8.5 7.6 94 1017.1 5.4 SW 9.2 0.0 0.0
04:14 8.5 7.6 94 1017.2 5.4 SW 9.2 0.0 0.0
04:15 8.5 7.6 94 1017.2 5.4 SW 9.2 0.0 0.0
04:16 8.5 7.6 94 1017.1 6.0 WSW 9.2 0.0 0.0
04:18 8.5 7.6 94 1017.2 5.4 SW 7.6 0.0 0.0
04:19 8.5 7.6 94 1017.3 4.5 S 7.6 0.0 0.0
04:20 8.5 7.6 94 1017.3 4.5 S 7.6 0.0 0.0
04:21 8.4 7.5 94 1017.3 5.4 W 7.6 0.0 0.0
04:22 8.4 7.5 94 1017.3 5.4 SW 7.6 0.0 0.0
04:23 8.4 7.5 94 1017.4 5.4 S 7.6 0.0 0.0
04:24 8.4 7.5 94 1017.5 6.0 S 7.6 0.0 0.0
04:25 8.4 7.5 94 1017.5 6.0 S 7.6 0.0 0.0
04:26 8.4 7.5 94 1017.5 5.4 SW 8.3 0.0 0.0
04:27 8.4 7.5 94 1017.5 6.0 SW 8.3 0.0 0.0
04:28 8.4 7.5 94 1017.4 5.4 S 8.3 0.0 0.0
04:29 8.4 7.5 94 1017.6 6.9 W 8.3 0.0 0.0
04:30 8.3 7.4 94 1017.5 4.5 SW 8.3 0.0 0.0
04:31 8.4 7.5 94 1017.6 5.4 SW 8.3 0.0 0.0
04:32 8.3 7.4 94 1017.7 5.4 S 8.3 0.0 0.0
04:33 8.3 7.4 94 1017.6 6.0 S 8.3 0.0 0.0
04:34 8.3 7.4 94 1017.5 4.5 S 8.3 0.0 0.0
04:35 8.3 7.4 94 1017.6 5.4 SW 6.9 0.0 0.0
04:37 8.3 7.4 94 1017.6 4.5 NW 6.9 0.0 0.0
04:38 8.3 7.4 94 1017.7 5.4 S 6.9 0.0 0.0
04:39 8.3 7.4 94 1017.7 5.4 S 6.9 0.0 0.0
04:40 8.3 7.4 94 1017.6 6.0 SW 6.0 0.0 0.0
04:41 8.3 7.4 94 1017.7 6.9 S 6.9 0.0 0.0
04:42 8.3 7.4 94 1017.6 2.2 W 6.9 0.0 0.0
04:43 8.3 7.4 94 1017.8 6.9 SW 6.9 0.0 0.0
04:44 8.3 7.4 94 1017.8 4.5 SW 6.9 0.0 0.0
04:45 8.3 7.4 94 1017.8 4.5 SW 6.9 0.0 0.0
04:46 8.3 7.4 94 1017.8 6.0 SW 6.9 0.0 0.0
04:47 8.3 7.4 94 1017.8 4.5 SW 6.9 0.0 0.0
04:48 8.3 7.4 94 1017.9 3.8 SW 6.9 0.0 0.0
04:49 8.3 7.4 94 1017.9 5.4 S 6.9 0.0 0.0
04:50 8.3 7.4 94 1017.8 5.4 W 6.9 0.0 0.0
04:51 8.3 7.4 94 1018.0 4.5 SW 6.9 0.0 0.0
04:52 8.3 7.4 94 1017.9 4.5 SW 6.9 0.0 0.0
04:53 8.3 7.4 94 1018.0 3.8 SW 6.0 0.0 0.0
04:54 8.3 7.4 94 1017.9 3.8 SSW 6.0 0.0 0.0
04:56 8.3 7.4 94 1017.9 5.4 S 5.4 0.0 0.0
04:57 8.3 7.4 94 1018.0 3.1 SW 5.4 0.0 0.0
04:58 8.3 7.4 94 1018.0 4.5 SW 5.4 0.0 0.0
04:59 8.2 7.3 94 1018.1 3.8 SW 5.4 0.0 0.0
05:00 8.2 7.3 94 1018.0 3.8 S 5.4 0.0 0.0
05:01 8.2 7.3 94 1018.1 3.8 S 5.4 0.0 0.0
05:02 8.2 7.3 94 1018.2 3.8 S 5.4 0.0 0.0
05:03 8.2 7.3 94 1018.2 3.8 S 5.4 0.0 0.0
05:04 8.2 7.3 94 1018.3 3.8 S 5.4 0.0 0.0
05:05 8.2 7.3 94 1018.3 3.8 S 5.4 0.0 0.0
05:06 8.2 7.3 94 1018.3 3.1 SW 5.4 0.0 0.0
05:07 8.1 7.2 94 1018.3 4.5 SW 4.5 0.0 0.0
05:08 8.1 7.2 94 1018.4 2.2 NW 4.5 0.0 0.0
05:09 8.1 7.2 94 1018.3 3.1 SW 4.5 0.0 0.0
05:10 8.1 7.2 94 1018.3 3.1 SW 4.5 0.0 0.0
05:11 8.1 7.2 94 1018.3 4.5 S 4.5 0.0 0.0
05:12 8.1 7.2 94 1018.3 3.1 SW 4.5 0.0 0.0
05:13 8.1 7.2 94 1018.3 3.8 SW 4.5 0.0 0.0
05:14 8.0 7.1 94 1018.4 1.6 SW 4.5 0.0 0.0
05:15 8.0 7.1 94 1018.3 0.7 W 4.5 0.0 0.0
05:16 8.0 7.1 94 1018.4 3.8 SW 4.5 0.0 0.0
05:18 8.0 7.1 94 1018.6 3.8 SE 4.5 0.0 0.0
05:19 8.0 7.1 94 1018.5 3.1 SW 4.5 0.0 0.0
05:20 8.0 7.1 94 1018.4 4.5 SW 4.5 0.0 0.0
05:21 8.0 7.1 94 1018.3 4.5 W 4.5 0.0 0.0
05:22 7.9 7.0 94 1018.4 3.8 S 4.5 0.0 0.0
05:23 8.0 7.1 94 1018.5 3.1 SW 4.5 0.0 0.0
05:24 7.9 7.0 94 1018.6 3.8 SW 4.5 0.0 0.0
05:25 7.9 7.0 94 1018.5 3.8 SW 4.5 0.0 0.0
05:26 7.9 7.1 95 1018.6 5.4 SW 5.4 0.0 0.0
05:27 7.9 7.1 95 1018.5 3.1 SW 5.4 0.0 0.0
05:28 7.9 7.1 95 1018.6 3.1 S 5.4 0.0 0.0
05:29 7.9 7.1 95 1018.6 3.1 W 5.4 0.0 0.0
05:30 7.9 7.0 94 1018.7 2.2 S 5.4 0.0 0.0
05:31 7.9 7.1 95 1018.6 2.2 SE 5.4 0.0 0.0
05:32 7.9 7.1 95 1018.7 0.0 SW 5.4 0.0 0.0
05:33 7.9 7.1 95 1018.6 0.0 S 5.4 0.0 0.0
05:34 7.9 7.1 95 1018.5 0.0 S 5.4 0.0 0.0
05:35 7.8 7.1 95 1018.6 0.0 SSW 5.4 0.0 0.0
05:37 7.8 7.1 95 1018.6 0.0 S 3.8 0.0 0.0
05:38 7.8 7.1 95 1018.5 0.0 S 3.8 0.0 0.0
05:39 7.8 7.1 95 1018.5 0.0 S 3.8 0.0 0.0
05:40 7.8 7.1 95 1018.6 0.0 S 3.8 0.0 0.0
05:41 7.8 7.1 95 1018.8 0.0 W 2.2 0.0 0.0
05:42 7.8 7.1 95 1018.8 0.0 SW 0.0 0.0 0.0
05:43 7.8 7.1 95 1018.8 0.0 SW 0.0 0.0 0.0
05:44 7.8 7.1 95 1018.8 0.0 SW 0.0 0.0 0.0
05:45 7.8 7.1 95 1018.8 0.0 SW 0.0 0.0 0.0
05:46 7.8 7.1 95 1018.8 0.0 S 0.0 0.0 0.0
05:47 7.8 7.1 95 1018.8 0.0 S 0.0 0.0 0.0
05:48 7.8 7.1 95 1018.8 0.0 SW 0.0 0.0 0.0
05:49 7.8 7.1 95 1018.8 0.0 S 0.0 0.0 0.0
05:50 7.8 7.1 95 1018.9 0.0 S 0.0 0.0 0.0
05:51 7.8 7.1 95 1018.9 0.0 S 0.0 0.0 0.0
05:52 7.8 7.1 95 1018.9 0.0 S 0.0 0.0 0.0
05:53 7.8 7.1 95 1019.1 0.0 SW 0.0 0.0 0.0
05:54 7.7 7.0 95 1019.0 0.0 S 0.0 0.0 0.0
05:56 7.7 7.0 95 1019.0 0.0 S 0.0 0.0 0.0
05:57 7.7 7.0 95 1019.0 0.0 S 0.0 0.0 0.0
05:58 7.7 7.0 95 1018.9 0.0 S 0.0 0.0 0.0
05:59 7.7 7.0 95 1019.0 0.0 S 0.0 0.0 0.0
06:00 7.7 7.0 95 1019.0 0.0 S 0.0 0.0 0.0
06:01 7.7 7.0 95 1019.2 0.0 S 0.0 0.0 0.0
06:02 7.7 7.0 95 1019.2 0.0 S 0.0 0.0 0.0
06:03 7.7 7.0 95 1019.3 0.0 S 0.0 0.0 0.0
06:04 7.7 7.0 95 1019.3 0.0 S 0.0 0.0 0.0
06:05 7.7 7.0 95 1019.2 0.0 S 0.0 0.0 0.0
06:06 7.7 7.0 95 1019.2 0.0 S 0.0 0.0 0.0
06:07 7.7 7.0 95 1019.1 0.0 S 0.0 0.0 0.0
06:08 7.7 7.0 95 1019.3 0.0 S 0.0 0.0 0.0
06:09 7.7 7.1 96 1019.2 0.0 S 0.0 0.0 0.0
06:10 7.7 7.1 96 1019.3 0.0 SW 0.0 0.0 0.0
06:11 7.7 7.1 96 1019.3 0.0 S 0.0 0.0 0.0
06:12 7.7 7.1 96 1019.3 0.0 S 0.0 0.0 0.0
06:13 7.7 7.1 96 1019.4 0.0 S 0.0 0.0 0.0
06:15 7.7 7.1 96 1019.3 0.0 NNE 0.0 0.0 0.0
06:16 7.7 7.1 96 1019.4 0.0 S 0.0 0.0 0.0
06:17 7.7 7.1 96 1019.4 0.0 SSW 0.0 0.0 0.0
06:18 7.7 7.1 96 1019.4 0.0 S 0.0 0.0 0.0
06:19 7.7 7.1 96 1019.5 0.0 SSW 0.0 0.0 0.0
06:20 7.7 7.1 96 1019.4 0.0 S 0.0 0.0 0.0
06:21 7.7 7.1 96 1019.4 0.0 S 0.0 0.0 0.0
06:22 7.7 7.1 96 1019.5 0.0 S 0.0 0.0 0.0
06:23 7.7 7.1 96 1019.5 0.0 SW 0.0 0.0 0.0
06:24 7.7 7.1 96 1019.4 0.0 SW 0.0 0.0 0.0
06:25 7.7 7.1 96 1019.4 0.0 SSW 0.0 0.0 0.0
06:26 7.7 7.1 96 1019.6 0.0 SW 0.0 0.0 0.0
06:27 7.6 7.0 96 1019.6 0.0 S 0.0 0.0 0.0
06:28 7.6 7.0 96 1019.6 0.0 SW 0.0 0.0 0.0
06:29 7.6 7.0 96 1019.4 6.0 WSW 6.0 0.0 0.0
06:30 7.6 7.0 96 1019.5 3.8 S 6.0 0.0 0.0
06:31 7.6 7.0 96 1019.4 5.4 W 6.0 0.0 0.0
06:32 7.6 7.0 96 1019.5 4.5 SW 6.0 0.0 0.0
06:35 7.6 7.0 96 1019.6 4.5 SSE 6.0 0.0 0.0
06:36 7.6 7.0 96 1019.5 3.8 SW 6.0 0.0 0.0
06:37 7.6 7.0 96 1019.3 4.5 S 6.0 0.0 0.0
06:38 7.6 7.0 96 1019.3 6.0 SW 6.0 0.0 0.0
06:39 7.6 7.0 96 1019.4 5.4 SW 6.0 0.0 0.0
06:40 7.6 7.0 96 1019.4 3.8 W 6.0 0.0 0.0
06:41 7.6 7.0 96 1019.5 4.5 S 6.0 0.0 0.0
06:42 7.6 7.0 96 1019.5 5.4 S 6.0 0.0 0.0
06:43 7.6 7.0 96 1019.5 3.8 S 6.0 0.0 0.0
06:44 7.7 7.1 96 1019.6 6.0 SW 6.0 0.0 0.0
06:45 7.7 7.1 96 1019.5 4.5 S 6.0 0.0 0.0
06:46 7.7 7.1 96 1019.6 4.5 SSW 6.0 0.0 0.0
06:47 7.7 7.1 96 1019.5 4.5 SW 6.0 0.0 0.0
06:48 7.7 7.1 96 1019.7 3.8 SSW 6.0 0.0 0.0
06:49 7.7 7.1 96 1019.5 5.4 SW 6.0 0.0 0.0
06:51 7.8 7.2 96 1019.6 4.5 SW 6.0 0.0 0.0
06:52 7.8 7.2 96 1019.6 4.5 S 6.0 0.0 0.0
06:53 7.8 7.2 96 1019.7 3.8 NW 6.0 0.0 0.0
06:54 7.8 7.2 96 1019.7 3.1 SW 6.0 0.0 0.0
06:55 7.8 7.2 96 1019.6 3.1 SE 5.4 0.0 0.0
06:56 7.8 7.2 96 1019.5 4.5 SW 5.4 0.0 0.0
06:57 7.8 7.2 96 1019.6 4.5 SW 5.4 0.0 0.0
06:58 7.8 7.2 96 1019.6 3.8 SW 5.4 0.0 0.0
06:59 7.8 7.2 96 1019.7 3.8 WSW 5.4 0.0 0.0
07:00 7.8 7.2 96 1019.6 3.8 WSW 5.4 0.0 0.0
07:01 7.8 7.2 96 1019.6 3.8 WSW 5.4 0.0 0.0
07:02 7.8 7.2 96 1019.6 3.8 WSW 5.4 0.0 0.0
07:03 7.8 7.2 96 1019.8 3.8 WSW 5.4 0.0 0.0
07:04 7.8 7.2 96 1019.7 3.8 WSW 5.4 0.0 0.0
07:05 7.8 7.4 97 1019.6 3.8 S 4.5 0.0 0.0
07:06 7.9 7.5 97 1019.6 3.8 SW 4.5 0.0 0.0
07:08 7.8 7.4 97 1019.7 3.1 SW 4.5 0.0 0.0
07:09 7.8 7.4 97 1019.6 3.8 SW 4.5 0.0 0.0
07:10 7.8 7.4 97 1019.8 3.1 SW 4.5 0.0 0.0
07:11 7.8 7.4 97 1019.7 3.8 S 4.5 0.0 0.0
07:12 7.7 7.1 96 1019.7 5.4 S 5.4 0.0 0.0
07:13 7.7 7.1 96 1019.8 3.8 S 5.4 0.0 0.0
07:14 7.7 7.3 97 1019.8 3.1 W 5.4 0.0 0.0
07:15 7.7 7.1 96 1019.8 3.8 S 5.4 0.0 0.0
07:16 7.7 7.1 96 1019.8 3.8 S 5.4 0.0 0.0
07:17 7.7 7.1 96 1019.7 2.2 S 5.4 0.0 0.0
07:18 7.7 7.1 96 1019.9 2.2 S 5.4 0.0 0.0
07:19 7.7 7.1 96 1019.9 3.1 S 5.4 0.0 0.0
07:20 7.8 7.4 97 1019.8 2.2 S 5.4 0.0 0.0
07:21 7.8 7.4 97 1019.8 2.2 SE 5.4 0.0 0.0
07:23 7.7 7.3 97 1019.8 2.2 SE 3.8 0.0 0.0
07:24 7.7 7.3 97 1019.8 2.2 S 3.8 0.0 0.0
07:25 7.7 7.3 97 1019.9 2.2 S 3.8 0.0 0.0
07:26 7.7 7.3 97 1020.0 1.6 S 3.1 0.0 0.0
07:27 7.7 7.3 97 1020.0 1.6 S 3.1 0.0 0.0
07:28 7.7 7.3 97 1020.1 2.2 SE 3.1 0.0 0.0
07:29 7.8 7.4 97 1020.1 1.6 SE 3.1 0.0 0.0
07:30 7.8 7.4 97 1020.0 1.6 SE 3.1 0.0 0.0
07:31 7.8 7.4 97 1019.9 1.6 SSE 3.1 0.0 0.0
07:32 7.8 7.4 97 1020.1 0.0 S 3.1 0.0 0.0
07:33 7.8 7.4 97 1020.1 0.0 SE 2.2 0.0 0.0
07:34 7.8 7.4 97 1020.1 0.0 SE 2.2 0.0 0.0
07:35 7.8 7.4 97 1020.1 0.7 E 2.2 0.0 0.0
07:37 7.8 7.4 97 1020.3 3.1 S 3.1 0.0 0.0
07:38 7.8 7.4 97 1020.0 0.0 S 3.1 0.0 0.0
07:39 7.7 7.3 97 1020.3 0.0 S 3.1 0.0 0.0
07:40 7.7 7.3 97 1020.2 0.0 S 3.1 0.0 0.0
07:41 7.7 7.3 97 1020.2 0.0 SE 3.1 0.0 0.0
07:42 7.7 7.3 97 1020.3 0.0 S 3.1 0.0 0.0
07:43 7.7 7.3 97 1020.1 0.0 SE 3.1 0.0 0.0
07:44 7.7 7.3 97 1020.1 0.0 S 3.1 0.0 0.0
07:45 7.7 7.3 97 1020.1 0.0 S 3.1 0.0 0.0
07:46 7.7 7.3 97 1020.3 0.0 S 3.1 0.0 0.0
07:47 7.7 7.3 97 1020.3 0.0 SE 0.7 0.0 0.0
07:48 7.7 7.3 97 1020.3 0.0 SE 0.0 0.0 0.0
07:49 7.7 7.3 97 1020.3 0.0 SE 0.0 0.0 0.0
07:50 7.7 7.3 97 1020.3 0.0 SE 0.0 0.0 0.0
07:51 7.7 7.3 97 1020.2 0.0 SE 0.0 0.0 0.0
07:52 7.7 7.3 97 1020.4 0.0 SE 0.0 0.0 0.0
07:53 7.7 7.3 97 1020.4 0.0 E 0.0 0.0 0.0
07:54 7.7 7.3 97 1020.3 0.7 SE 0.7 0.0 0.0
07:55 7.7 7.3 97 1020.4 0.0 SE 0.7 0.0 0.0
07:56 7.7 7.3 97 1020.4 0.0 E 0.7 0.0 0.0
07:57 7.7 7.3 97 1020.3 0.0 S 0.7 0.0 0.0
07:58 7.7 7.3 97 1020.3 0.0 S 0.7 0.0 0.0
07:59 7.7 7.3 97 1020.5 0.0 S 0.7 0.0 0.0
08:00 7.7 7.3 97 1020.4 0.0 SE 0.7 0.0 0.0
08:01 7.7 7.3 97 1020.3 0.0 SE 0.7 0.0 0.0
08:02 7.7 7.3 97 1020.5 0.0 SE 0.7 0.0 0.0
08:03 7.7 7.3 97 1020.5 0.0 S 0.7 0.0 0.0
08:04 7.7 7.3 97 1020.5 0.0 SSE 0.7 0.0 0.0
08:06 7.7 7.3 97 1020.6 0.0 S 0.0 0.0 0.0
08:07 7.7 7.3 97 1020.6 0.0 SE 0.0 0.0 0.0
08:08 7.7 7.3 97 1020.6 0.0 S 0.0 0.0 0.0
08:09 7.8 7.4 97 1020.6 0.0 SE 0.0 0.0 0.0
08:10 7.8 7.4 97 1020.5 0.0 S 0.0 0.0 0.0
08:11 7.8 7.4 97 1020.5 0.0 SE 0.0 0.0 0.0
08:12 7.8 7.4 97 1020.6 0.0 SE 0.0 0.0 0.0
08:13 7.8 7.4 97 1020.6 0.0 SE 0.0 0.0 0.0
08:14 7.8 7.4 97 1020.5 0.0 SE 0.0 0.0 0.0
08:15 7.8 7.4 97 1020.6 0.0 S 0.0 0.0 0.0
08:16 7.8 7.4 97 1020.6 0.0 S 0.0 0.0 0.0
08:17 7.8 7.4 97 1020.8 0.0 N 0.0 0.0 0.0
08:18 7.9 7.5 97 1020.7 0.0 SW 0.0 0.0 0.0
08:19 7.9 7.5 97 1020.7 0.0 SE 0.0 0.0 0.0
08:20 7.9 7.5 97 1020.7 0.0 SW 0.0 0.0 0.0
08:21 7.9 7.5 97 1020.7 0.0 S 0.0 0.0 0.0
08:22 7.9 7.5 97 1020.8 0.0 S 0.0 0.0 0.0
08:23 8.0 7.6 97 1020.9 0.0 S 0.0 0.0 0.0
08:24 8.0 7.7 98 1020.9 0.0 S 0.0 0.0 0.0
08:25 8.0 7.6 97 1020.8 0.0 S 0.0 0.0 0.0
08:26 8.0 7.6 97 1020.8 0.0 S 0.0 0.0 0.0
08:27 8.0 7.7 98 1021.1 0.0 S 0.0 0.0 0.0
08:28 8.0 7.7 98 1021.1 0.0 SW 0.0 0.0 0.0
08:29 8.0 7.7 98 1021.1 0.0 SE 0.0 0.0 0.0
08:30 8.1 7.8 98 1021.0 0.0 E 0.0 0.0 0.0
08:32 8.1 7.8 98 1021.2 0.0 S 0.0 0.0 0.0
08:33 8.1 7.8 98 1021.2 0.0 S 0.0 0.0 0.0
08:34 8.1 7.8 98 1021.2 0.0 S 0.0 0.0 0.0
08:35 8.1 7.8 98 1021.2 0.0 S 0.0 0.0 0.0
08:36 8.2 7.9 98 1021.3 0.0 SE 0.0 0.0 0.0
08:37 8.2 7.9 98 1021.2 0.0 SW 0.0 0.0 0.0
08:38 8.2 7.9 98 1021.2 0.0 S 0.0 0.0 0.0
08:40 8.3 8.0 98 1021.3 0.0 SE 0.0 0.0 0.0
08:41 8.3 8.0 98 1021.3 0.0 SE 0.0 0.0 0.0
08:42 8.3 8.0 98 1021.3 3.8 SW 3.8 0.0 0.0
08:43 8.4 8.1 98 1021.3 2.2 SW 3.8 0.0 0.0
08:44 8.4 8.1 98 1021.4 0.0 S 3.8 0.0 0.0
08:45 8.5 8.2 98 1021.3 4.5 S 4.5 0.0 0.0
08:46 8.5 8.2 98 1021.4 5.4 S 5.4 0.0 0.0
08:47 8.6 8.3 98 1021.2 3.1 S 5.4 0.0 0.0
08:48 8.6 8.3 98 1021.2 3.1 S 5.4 0.0 0.0
08:49 8.7 8.4 98 1021.3 0.0 SW 5.4 0.0 0.0
08:50 8.7 8.4 98 1021.3 4.5 S 5.4 0.0 0.0
08:51 8.8 8.5 98 1021.3 4.5 S 5.4 0.0 0.0
08:52 8.9 8.6 98 1021.3 6.0 NNE 6.0 0.0 0.0
08:53 8.9 8.6 98 1021.3 9.2 S 9.2 0.0 0.0
08:54 9.1 9.0 99 1021.4 7.6 S 9.2 0.0 0.0
08:55 9.2 9.1 99 1021.3 9.2 SE 9.2 0.0 0.0
08:56 9.3 9.2 99 1021.3 7.6 SW 9.2 0.0 0.0
08:57 9.4 9.3 99 1021.4 10.7 SSW 10.7 0.0 0.0
08:58 9.5 9.4 99 1021.3 9.8 S 10.7 0.0 0.0
08:59 9.5 9.4 99 1021.4 7.6 S 10.7 0.0 0.0
09:00 9.6 9.5 99 1021.5 8.3 SSE 10.7 0.0 0.0
09:01 9.7 9.6 99 1021.5 9.8 SW 10.7 0.0 0.0
09:02 9.8 9.7 99 1021.4 9.2 S 10.7 0.0 0.0
09:03 9.9 9.8 99 1021.5 9.8 S 10.7 0.0 0.0
09:04 9.9 9.8 99 1021.3 9.8 SW 10.7 0.0 0.0
09:05 10.0 9.9 99 1021.5 6.0 SE 10.7 0.0 0.0
09:06 10.0 9.9 99 1021.5 7.6 SE 10.7 0.0 0.0
09:07 10.1 10.0 99 1021.5 9.2 S 10.7 0.0 0.0
09:08 10.1 10.0 99 1021.4 7.6 S 9.8 0.0 0.0
09:09 10.1 10.0 99 1021.6 9.8 SW 9.8 0.0 0.0
09:10 10.2 10.1 99 1021.6 9.8 S 9.8 0.0 0.0
09:11 10.2 10.1 99 1021.7 8.3 S 9.8 0.0 0.0
09:12 10.2 10.1 99 1021.7 6.9 WSW 9.8 0.0 0.0
09:13 10.3 10.2 99 1021.8 9.2 S 9.8 0.0 0.0
09:14 10.3 10.2 99 1021.6 8.3 S 9.8 0.0 0.0
09:15 10.3 10.2 99 1021.6 8.3 SW 9.8 0.0 0.0
09:16 10.4 10.3 99 1021.6 6.9 S 9.8 0.0 0.0
09:17 10.4 10.3 99 1021.6 6.0 S 9.8 0.0 0.0
09:18 10.4 10.3 99 1021.7 10.7 S 10.7 0.0 0.0
09:19 10.4 10.3 99 1021.7 7.6 SW 10.7 0.0 0.0
09:20 10.4 10.3 99 1021.7 7.6 S 10.7 0.0 0.0
09:21 10.4 10.3 99 1021.7 7.6 S 10.7 0.0 0.0
09:22 10.4 10.3 99 1021.5 9.2 SW 10.7 0.0 0.0
09:23 10.4 10.3 99 1021.7 8.3 NW 10.7 0.0 0.0
09:24 10.5 10.4 99 1021.6 10.7 SW 10.7 0.0 0.0
09:25 10.5 10.4 99 1021.7 11.4 S 11.4 0.0 0.0
09:26 10.5 10.4 99 1021.8 9.2 S 11.4 0.0 0.0
09:27 10.6 10.5 99 1021.7 9.2 SW 11.4 0.0 0.0
09:28 10.6 10.5 99 1021.8 6.9 S 11.4 0.0 0.0
09:29 10.6 10.5 99 1021.8 9.8 SE 11.4 0.0 0.0
09:30 10.6 10.5 99 1021.6 6.0 S 11.4 0.0 0.0
09:31 10.6 10.5 99 1021.8 7.6 S 11.4 0.0 0.0
09:32 10.7 10.6 99 1021.8 9.2 S 11.4 0.0 0.0
09:33 10.7 10.6 99 1021.6 10.7 S 11.4 0.0 0.0
09:34 10.7 10.6 99 1021.7 7.6 S 11.4 0.0 0.0
09:35 10.7 10.6 99 1021.6 8.3 S 10.7 0.0 0.0
09:36 10.8 10.7 99 1021.6 10.7 SW 10.7 0.0 0.0
09:37 10.8 10.7 99 1021.7 9.8 S 10.7 0.0 0.0
09:38 10.8 10.7 99 1021.6 9.8 S 10.7 0.0 0.0
09:39 10.8 10.7 99 1021.8 10.7 S 10.7 0.0 0.0
09:40 10.9 10.8 99 1021.7 11.4 SE 11.4 0.0 0.0
09:41 10.9 10.8 99 1021.7 10.7 S 11.4 0.0 0.0
09:42 10.9 10.8 99 1021.7 8.3 S 11.4 0.0 0.0
09:43 11.0 10.9 99 1021.8 9.8 SSE 11.4 0.0 0.0
09:44 11.0 10.9 99 1021.8 9.8 SW 11.4 0.0 0.0
09:45 11.0 10.9 99 1021.9 9.2 SW 11.4 0.0 0.0
09:46 11.1 11.0 99 1022.0 9.2 S 11.4 0.0 0.0
09:47 11.1 11.0 99 1021.9 10.7 S 11.4 0.0 0.0
09:48 11.1 11.0 99 1022.0 10.7 SW 11.4 0.0 0.0
09:49 11.1 11.0 99 1022.0 10.7 S 11.4 0.0 0.0
09:50 11.1 11.0 99 1022.0 6.9 S 11.4 0.0 0.0
09:51 11.2 11.1 99 1021.9 9.2 SW 11.4 0.0 0.0
09:52 11.2 11.1 99 1021.9 9.8 S 11.4 0.0 0.0
09:53 11.2 11.1 99 1022.0 10.7 S 11.4 0.0 0.0
09:54 11.2 11.1 99 1021.9 10.7 SW 11.4 0.0 0.0
09:55 11.2 11.1 99 1022.0 8.3 S 10.7 0.0 0.0
09:56 11.2 11.1 99 1021.9 9.2 SW 10.7 0.0 0.0
09:57 11.2 11.1 99 1021.8 10.7 S 10.7 0.0 0.0
09:58 11.2 11.1 99 1021.9 10.7 SW 10.7 0.0 0.0
09:59 11.3 11.2 99 1022.1 13.6 S 13.6 0.0 0.0
10:00 11.3 11.2 99 1021.8 10.7 SW 13.6 0.0 0.0
10:01 11.3 11.2 99 1021.8 11.4 S 13.6 0.0 0.0
10:02 11.3 11.2 99 1021.8 9.8 S 13.6 0.0 0.0
10:03 11.3 11.2 99 1021.8 10.7 S 13.6 0.0 0.0
10:04 11.3 11.2 99 1021.9 8.3 S 13.6 0.0 0.0
10:05 11.4 11.3 99 1021.9 9.2 SW 13.6 0.0 0.0
10:06 11.4 11.3 99 1021.8 7.6 S 13.6 0.0 0.0
10:07 11.4 11.3 99 1021.9 11.4 SW 13.6 0.0 0.0
10:08 11.4 11.3 99 1022.0 9.8 SW 13.6 0.0 0.0
10:09 11.4 11.1 98 1022.0 11.4 SW 13.6 0.0 0.0
10:10 11.5 11.2 98 1022.0 12.1 SW 13.0 0.0 0.0
10:11 11.5 11.2 98 1021.9 13.0 SW 13.0 0.0 0.0
10:12 11.5 11.2 98 1021.9 8.3 E 13.0 0.0 0.0
10:13 11.5 11.2 98 1022.0 12.1 S 13.0 0.0 0.0
10:14 11.5 11.2 98 1022.1 12.1 SSW 15.2 0.0 0.0
10:15 11.5 11.2 98 1022.2 12.1 S 15.2 0.0 0.0
10:16 11.5 11.2 98 1022.1 8.3 SE 15.2 0.0 0.0
10:17 11.6 11.3 98 1022.0 11.4 S 15.2 0.0 0.0
10:18 11.6 11.3 98 1022.1 11.4 S 15.2 0.0 0.0
10:19 11.6 11.3 98 1022.1 9.8 S 15.2 0.0 0.0
10:20 11.6 11.3 98 1022.1 16.8 S 16.8 0.0 0.0
10:21 11.6 11.3 98 1022.1 15.2 SW 16.8 0.0 0.0
10:22 11.5 11.2 98 1022.3 12.1 SSW 16.8 0.0 0.0
10:23 11.6 11.1 97 1022.1 9.8 S 16.8 0.0 0.0
10:24 11.6 11.1 97 1022.0 13.0 SE 16.8 0.0 0.0
10:25 11.6 11.1 97 1022.2 13.0 S 16.8 0.0 0.0
10:26 11.6 11.1 97 1022.1 13.6 S 16.8 0.0 0.0
10:27 11.6 11.1 97 1022.1 13.0 S 16.8 0.0 0.0
10:28 11.6 11.1 97 1022.1 13.0 S 16.8 0.0 0.0
10:29 11.6 11.1 97 1022.1 16.8 SSW 16.8 0.0 0.0
10:30 11.6 11.1 97 1022.1 9.8 S 16.8 0.0 0.0
10:31 11.6 11.1 97 1022.1 9.2 S 16.8 0.0 0.0
10:32 11.6 11.1 97 1022.2 12.1 SW 16.8 0.0 0.0
10:33 11.5 11.0 97 1022.2 10.7 S 16.8 0.0 0.0
10:34 11.6 11.1 97 1022.2 9.8 S 16.8 0.0 0.0
10:35 11.5 11.0 97 1022.1 9.2 SW 16.8 0.0 0.0
10:36 11.5 11.0 97 1022.1 9.8 SW 16.8 0.0 0.0
10:37 11.5 11.0 97 1022.1 9.8 SW 16.8 0.0 0.0
10:38 11.5 11.0 97 1022.0 12.1 SW 16.8 0.0 0.0
10:39 11.6 11.1 97 1022.2 9.8 S 13.0 0.0 0.0
10:40 11.6 11.1 97 1022.2 10.7 SW 13.0 0.0 0.0
10:41 11.6 11.1 97 1022.2 9.2 S 13.0 0.0 0.0
10:42 11.6 11.0 96 1022.3 9.8 S 12.1 0.0 0.0
10:43 11.6 11.0 96 1022.2 8.3 SE 12.1 0.0 0.0
10:44 11.6 11.0 96 1022.3 8.3 S 12.1 0.0 0.0
10:45 11.6 11.0 96 1022.2 9.8 S 12.1 0.0 0.0
10:46 11.6 11.0 96 1022.3 11.4 S 12.1 0.0 0.0
10:47 11.6 11.0 96 1022.3 10.7 SE 12.1 0.0 0.0
10:48 11.6 11.0 96 1022.1 9.8 S 12.1 0.0 0.0
10:49 11.6 11.0 96 1022.3 7.6 SE 11.4 0.0 0.0
10:50 11.6 11.0 96 1022.3 9.8 S 11.4 0.0 0.0
10:51 11.6 11.0 96 1022.2 10.7 S 11.4 0.0 0.0
10:52 11.6 11.0 96 1022.4 9.8 SE 11.4 0.0 0.0
10:53 11.5 10.9 96 1022.3 15.9 SE 15.9 0.0 0.0
10:54 11.6 11.0 96 1022.2 12.1 NNW 15.9 0.0 0.0
10:55 11.6 11.0 96 1022.3 11.4 SSW 15.9 0.0 0.0
10:56 11.7 11.1 96 1022.3 12.1 SE 15.9 0.0 0.0
10:57 11.7 11.1 96 1022.2 15.9 NNE 15.9 0.0 0.0
10:58 11.7 11.1 96 1022.2 13.0 S 15.9 0.0 0.0
10:59 11.7 11.1 96 1022.2 13.6 SSE 15.9 0.0 0.0
11:00 11.7 11.1 96 1022.2 13.0 S 15.9 0.0 0.0
11:01 11.7 11.1 96 1022.2 14.5 S 15.9 0.0 0.0
11:02 11.8 11.2 96 1022.2 15.2 SW 15.9 0.0 0.0
11:03 11.8 11.2 96 1022.2 13.0 SSW 15.9 0.0 0.0
11:04 11.9 11.3 96 1022.2 10.7 SW 15.9 0.0 0.0
11:05 12.0 11.4 96 1022.2 15.2 SSW 15.9 0.0 0.0
11:06 12.0 11.4 96 1022.3 15.2 SW 15.9 0.0 0.0
11:07 12.0 11.4 96 1022.2 12.1 SE 15.2 0.0 0.0
11:08 12.1 11.5 96 1022.3 15.2 S 15.2 0.0 0.0
11:09 12.1 11.5 96 1022.3 15.2 S 15.2 0.0 0.0
11:10 12.1 11.5 96 1022.3 13.6 SE 15.2 0.0 0.0
11:11 12.1 11.5 96 1022.3 15.2 S 15.2 0.0 0.0
11:12 12.1 11.5 96 1022.2 15.2 SW 15.2 0.0 0.0
11:13 12.1 11.5 96 1022.2 14.5 S 15.2 0.0 0.0
11:14 12.2 11.6 96 1022.2 13.0 SW 15.2 0.0 0.0
11:15 12.2 11.6 96 1022.2 13.0 S 15.2 0.0 0.0
11:16 12.4 11.8 96 1022.2 15.9 S 15.9 0.0 0.0
11:17 12.4 11.8 96 1022.2 16.8 SW 16.8 0.0 0.0
11:18 12.5 11.9 96 1022.4 13.6 S 16.8 0.0 0.0
11:19 12.6 12.0 96 1022.1 13.6 SE 16.8 0.0 0.0
11:20 12.6 12.0 96 1022.3 14.5 S 16.8 0.0 0.0
11:21 12.6 11.8 95 1022.2 16.8 S 16.8 0.0 0.0
11:22 12.6 11.8 95 1022.2 15.2 SE 16.8 0.0 0.0
11:23 12.6 11.8 95 1022.2 14.5 S 16.8 0.0 0.0
11:24 12.6 11.7 94 1022.3 16.8 SE 16.8 0.0 0.0
11:25 12.6 11.7 94 1022.3 16.8 SE 16.8 0.0 0.0
11:26 12.5 11.6 94 1022.3 10.7 SW 16.8 0.0 0.0
11:27 12.5 11.6 94 1022.3 15.2 S 16.8 0.0 0.0
11:28 12.5 11.6 94 1022.3 17.4 S 17.4 0.0 0.0
11:29 12.4 11.5 94 1022.2 15.9 S 17.4 0.0 0.0
11:30 12.3 11.2 93 1022.3 16.8 SE 17.4 0.0 0.0
11:31 12.3 11.2 93 1022.2 15.2 S 17.4 0.0 0.0
11:32 12.2 11.1 93 1022.2 15.2 SW 17.4 0.0 0.0
11:33 12.2 11.1 93 1022.1 14.5 WSW 17.4 0.0 0.0
11:34 12.2 11.1 93 1022.5 15.9 S 17.4 0.0 0.0
11:35 12.2 11.1 93 1022.3 16.8 S 17.4 0.0 0.0
11:36 12.1 11.0 93 1022.5 15.2 S 17.4 0.0 0.0
11:37 12.1 11.0 93 1022.4 14.5 S 17.4 0.0 0.0
11:38 12.1 11.0 93 1022.3 13.6 SW 17.4 0.0 0.0
11:39 12.1 11.0 93 1022.5 14.5 S 17.4 0.0 0.0
11:40 12.1 11.0 93 1022.4 15.2 SW 16.8 0.0 0.0
11:41 12.1 11.0 93 1022.5 13.6 SE 16.8 0.0 0.0
11:42 12.1 11.0 93 1022.6 10.7 S 16.8 0.0 0.0
11:43 12.1 11.0 93 1022.3 11.4 SW 16.8 0.0 0.0
11:44 12.1 11.0 93 1022.3 10.7 S 16.8 0.0 0.0
11:45 12.1 11.0 93 1022.5 15.2 S 15.2 0.8 0.1
11:47 12.1 11.2 94 1022.3 14.5 SW 15.2 0.8 0.1
11:48 12.1 11.0 93 1022.3 11.4 S 15.2 0.8 0.1
11:49 12.1 11.0 93 1022.4 12.1 S 15.2 0.8 0.1
11:50 12.1 11.2 94 1022.5 14.5 S 15.2 0.0 0.1
11:51 12.1 11.2 94 1022.4 13.0 SW 15.2 0.0 0.1
11:52 12.1 11.0 93 1022.4 13.6 S 15.2 0.0 0.1
11:53 12.1 11.0 93 1022.4 13.6 S 15.2 0.0 0.1
11:54 12.1 11.0 93 1022.5 14.5 S 15.2 0.0 0.1
11:55 12.1 11.0 93 1022.4 15.2 SE 15.2 0.0 0.1
11:56 12.1 11.0 93 1022.6 17.4 E 17.4 0.0 0.1
11:57 12.1 11.0 93 1022.3 21.3 S 21.3 0.0 0.1
11:58 12.2 11.1 93 1022.4 12.1 WSW 21.3 0.0 0.1
11:59 12.1 11.0 93 1022.4 15.9 S 21.3 0.0 0.1
12:00 12.2 11.1 93 1022.3 16.8 SW 21.3 0.0 0.1
12:01 12.2 11.1 93 1022.2 15.2 S 21.3 0.0 0.1
12:02 12.2 11.1 93 1022.3 18.3 S 21.3 0.0 0.1
12:03 12.2 11.1 93 1022.4 19.0 SE 21.3 0.0 0.1
12:04 12.2 11.1 93 1022.4 10.7 S 21.3 0.0 0.1
12:05 12.2 11.1 93 1022.5 14.5 SW 21.3 0.0 0.1
12:06 12.2 11.1 93 1022.2 14.5 S 21.3 0.0 0.1
12:07 12.2 11.1 93 1022.2 15.2 S 19.0 0.0 0.1
12:08 12.2 11.1 93 1022.3 13.6 S 19.0 0.0 0.1
12:09 12.2 11.1 93 1022.4 15.9 SW 19.0 0.0 0.1
12:10 12.2 11.1 93 1022.4 13.0 SW 19.0 0.0 0.1
12:11 12.2 11.1 93 1022.4 13.0 SE 19.0 0.0 0.1
12:12 12.3 11.2 93 1022.3 11.4 S 19.0 0.0 0.1
12:13 12.3 11.2 93 1022.4 15.2 SE 19.0 0.0 0.1
12:14 12.4 11.3 93 1022.3 14.5 S 19.0 0.0 0.1
12:16 12.4 11.3 93 1022.6 19.0 S 19.0 0.0 0.1
12:17 12.4 11.3 93 1022.5 16.8 S 19.0 0.0 0.1
12:18 12.4 11.3 93 1022.6 15.2 S 19.0 0.0 0.1
12:19 12.4 11.3 93 1022.7 17.4 S 19.0 0.0 0.1
12:20 12.4 11.3 93 1022.4 15.2 SW 19.0 0.0 0.1
12:21 12.4 11.3 93 1022.4 16.8 SW 19.0 0.0 0.1
12:22 12.4 11.3 93 1022.5 19.7 S 19.7 0.0 0.1
12:23 12.4 11.3 93 1022.4 13.0 SE 19.7 0.0 0.1
12:24 12.4 11.1 92 1022.6 10.7 S 19.7 0.0 0.1
12:25 12.4 11.1 92 1022.4 13.6 SW 19.7 0.0 0.1
12:26 12.5 11.4 93 1022.6 14.5 S 19.7 0.0 0.1
12:27 12.5 11.4 93 1022.5 16.8 SW 19.7 0.0 0.1
12:28 12.5 11.2 92 1022.4 13.6 SE 19.7 0.0 0.1
12:29 12.5 11.2 92 1022.6 15.9 S 19.7 0.0 0.1
12:31 12.5 11.2 92 1022.6 16.8 S 19.7 0.0 0.1
12:32 12.5 11.2 92 1022.4 15.9 SW 18.3 0.0 0.1
12:33 12.5 11.2 92 1022.5 11.4 SW 18.3 0.0 0.1
12:34 12.5 11.2 92 1022.4 15.9 SSE 18.3 0.0 0.1
12:35 12.6 11.2 91 1022.4 14.5 S 18.3 0.0 0.1
12:36 12.6 11.2 91 1022.5 19.7 S 19.7 0.0 0.1
12:37 12.6 11.2 91 1022.4 17.4 S 19.7 0.0 0.1
12:38 12.6 11.2 91 1022.4 12.1 S 19.7 0.0 0.1
12:39 12.6 11.2 91 1022.5 13.0 SW 19.7 0.0 0.1
12:40 12.6 11.2 91 1022.4 17.4 S 19.7 0.0 0.1
12:41 12.6 11.2 91 1022.4 15.2 SE 19.7 0.0 0.1
12:42 12.7 11.3 91 1022.4 17.4 S 19.7 0.0 0.1
12:43 12.6 11.2 91 1022.4 15.9 SW 19.7 0.0 0.1
12:44 12.6 11.2 91 1022.3 16.8 SE 19.7 0.0 0.1
12:45 12.6 11.0 90 1022.3 17.4 S 19.7 0.0 0.1
12:47 12.6 11.0 90 1022.3 11.4 S 17.4 0.0 0.1
12:48 12.6 11.0 90 1022.3 16.8 S 17.4 0.0 0.1
12:49 12.6 11.0 90 1022.4 11.4 S 17.4 0.0 0.1
12:50 12.6 11.0 90 1022.5 12.1 SE 17.4 0.0 0.1
12:51 12.5 10.9 90 1022.5 15.9 SW 17.4 0.0 0.1
12:52 12.5 10.9 90 1022.5 15.9 SW 17.4 0.0 0.1
12:53 12.5 10.9 90 1022.5 15.2 S 17.4 0.0 0.1
12:54 12.5 10.9 90 1022.4 15.2 S 17.4 0.0 0.1
12:55 12.5 10.9 90 1022.6 14.5 SW 16.8 0.0 0.1
12:56 12.5 10.9 90 1022.4 13.0 S 16.8 0.0 0.1
12:57 12.5 10.9 90 1022.3 11.4 SE 16.8 0.0 0.1
12:58 12.6 11.2 91 1022.4 13.0 SW 16.8 0.0 0.1
12:59 12.6 11.2 91 1022.4 19.7 SW 19.7 0.0 0.1
13:01 12.7 10.9 89 1022.3 19.0 S 19.7 0.0 0.1
13:02 12.7 10.9 89 1022.3 15.9 S 19.7 0.0 0.1
13:03 12.8 11.0 89 1022.4 12.1 SW 19.7 0.0 0.1
13:04 12.8 11.0 89 1022.3 15.2 S 19.7 0.0 0.1
13:05 12.9 11.1 89 1022.3 17.4 SE 19.7 0.0 0.1
13:06 12.9 11.1 89 1022.3 13.0 SE 19.7 0.0 0.1
13:07 12.9 11.0 88 1022.3 17.4 S 19.7 0.0 0.1
13:08 12.9 11.0 88 1022.4 11.4 S 19.7 0.0 0.1
13:09 12.9 11.0 88 1022.3 14.5 SE 19.0 0.0 0.1
13:10 12.9 11.0 88 1022.4 16.8 S 19.0 0.0 0.1
13:11 13.0 10.9 87 1022.3 16.8 S 19.0 0.0 0.1
13:12 13.0 10.9 87 1022.3 16.8 S 17.4 0.0 0.1
13:13 13.0 10.9 87 1022.4 15.2 SE 17.4 0.0 0.1
13:14 13.1 11.0 87 1022.3 12.1 S 17.4 0.0 0.1
13:15 13.2 11.1 87 1022.3 15.2 SSE 17.4 0.0 0.1
13:16 13.2 10.9 86 1022.4 17.4 S 17.4 0.0 0.1
13:17 13.2 10.7 85 1022.3 17.4 S 17.4 0.0 0.1
13:18 13.3 10.7 84 1022.3 18.3 S 18.3 0.0 0.1
13:19 13.3 10.7 84 1022.2 18.3 S 18.3 0.0 0.1
13:20 13.3 10.7 84 1022.2 15.9 S 18.3 0.0 0.1
13:22 13.2 10.4 83 1022.1 15.2 S 22.1 0.0 0.1
13:23 13.3 10.7 84 1022.2 13.6 S 22.1 0.0 0.1
13:24 13.3 10.7 84 1022.1 16.8 S 22.1 0.0 0.1
13:25 13.3 10.7 84 1022.2 18.3 S 22.1 0.0 0.1
13:26 13.3 10.5 83 1022.3 22.1 S 22.1 0.0 0.1
13:27 13.2 10.4 83 1022.2 18.3 S 22.1 0.0 0.1
13:28 13.2 10.4 83 1022.2 18.3 S 22.1 0.0 0.1
13:29 13.2 10.4 83 1022.2 14.5 S 22.1 0.0 0.1
13:30 13.2 10.6 84 1022.2 13.6 SE 22.1 0.0 0.1
13:31 13.2 10.6 84 1022.0 15.9 S 22.1 0.0 0.1
13:32 13.2 10.6 84 1022.2 13.6 SE 22.1 0.0 0.1
13:33 13.3 10.8 85 1022.2 15.9 S 22.1 0.0 0.1
13:34 13.3 10.8 85 1022.2 16.8 SE 22.1 0.0 0.1
13:35 13.3 10.8 85 1022.3 15.2 S 22.1 0.0 0.1
13:36 13.3 10.7 84 1022.2 17.4 S 22.1 0.0 0.1
13:38 13.3 10.8 85 1022.3 16.8 S 19.7 0.0 0.1
13:39 13.3 10.8 85 1022.2 17.4 SE 19.7 0.0 0.1
13:40 13.3 10.8 85 1022.3 18.3 SE 19.7 0.0 0.1
13:41 13.3 10.8 85 1022.3 15.2 S 19.7 0.0 0.1
13:42 13.3 10.8 85 1022.0 13.6 S 19.7 0.0 0.1
13:43 13.2 10.7 85 1022.2 15.2 SW 19.7 0.0 0.1
13:44 13.2 10.7 85 1022.2 15.2 SW 19.7 0.0 0.1
13:45 13.2 10.7 85 1022.3 19.0 S 19.7 0.0 0.1
13:46 13.1 10.6 85 1022.1 15.9 SE 19.7 0.0 0.1
13:47 13.1 10.6 85 1022.1 16.8 SW 19.7 0.0 0.1
13:48 13.1 10.6 85 1022.2 14.5 S 19.0 0.0 0.1
13:49 13.2 10.9 86 1022.3 15.2 SE 19.0 0.0 0.1
13:50 13.2 10.9 86 1022.3 11.4 S 19.0 0.0 0.1
13:51 13.2 10.9 86 1022.3 18.3 S 19.0 0.0 0.1
13:53 13.1 10.6 85 1022.2 15.9 S 19.0 0.0 0.1
13:54 13.1 10.8 86 1022.3 12.1 SE 19.0 0.0 0.1
13:55 13.1 10.8 86 1022.2 18.3 S 18.3 0.0 0.1
13:56 13.1 10.8 86 1022.3 18.3 S 18.3 0.0 0.1
13:57 13.0 10.7 86 1022.2 17.4 S 18.3 0.0 0.1
13:58 13.0 10.7 86 1022.1 15.2 SE 18.3 0.0 0.1
13:59 13.0 10.7 86 1022.1 13.6 SE 18.3 0.0 0.1
14:00 13.0 10.7 86 1022.1 13.0 S 18.3 0.0 0.1
14:01 13.0 10.7 86 1022.2 13.0 S 18.3 0.0 0.1
14:02 13.0 10.9 87 1022.2 18.3 S 18.3 0.0 0.1
14:03 13.0 10.9 87 1022.2 18.3 SE 18.3 0.0 0.1
14:04 13.0 10.7 86 1022.3 15.9 S 18.3 0.0 0.1
14:05 13.0 10.9 87 1022.3 18.3 SE 18.3 0.0 0.1
14:06 12.9 10.8 87 1022.1 13.0 S 18.3 0.0 0.1
14:07 12.9 10.8 87 1022.2 12.1 S 18.3 0.0 0.1
14:09 12.8 10.7 87 1022.1 14.5 S 18.3 0.0 0.1
14:10 12.8 10.7 87 1022.2 14.5 S 18.3 0.0 0.1
14:11 12.7 10.6 87 1022.2 19.7 S 19.7 0.0 0.1
14:12 12.7 10.6 87 1022.0 15.2 S 19.7 0.0 0.1
14:13 12.8 10.9 88 1022.0 13.0 S 19.7 0.0 0.1
14:14 12.8 10.9 88 1022.1 15.2 S 19.7 0.0 0.1
14:15 12.8 10.9 88 1022.1 14.5 SE 19.7 0.0 0.1
14:16 12.8 10.9 88 1022.1 14.5 SE 19.7 0.0 0.1
14:17 12.9 11.0 88 1022.0 16.8 S 19.7 0.0 0.1
14:18 12.9 11.0 88 1022.0 15.9 SE 19.7 0.0 0.1
14:19 12.9 11.0 88 1022.1 14.5 S 19.7 0.0 0.1
14:20 12.9 11.0 88 1022.0 16.8 S 19.7 0.0 0.1
14:21 12.9 11.0 88 1022.0 13.0 S 19.7 0.0 0.1
14:22 12.9 11.0 88 1022.2 17.4 SE 17.4 0.0 0.1
14:23 12.8 10.9 88 1022.2 17.4 SW 17.4 0.0 0.1
14:24 12.8 10.9 88 1022.3 18.3 S 18.3 0.0 0.1
14:26 12.8 10.9 88 1022.1 9.8 S 18.3 0.0 0.1
14:27 12.8 10.9 88 1022.0 17.4 S 18.3 0.0 0.1
14:28 12.8 10.9 88 1022.0 13.6 S 18.3 0.0 0.1
14:29 12.7 10.8 88 1022.0 15.9 S 18.3 0.0 0.1
14:30 12.7 10.8 88 1022.0 25.1 S 25.1 0.0 0.1
14:31 12.4 10.5 88 1021.9 15.9 SE 25.1 0.0 0.1
14:32 12.4 10.5 88 1021.9 15.9 SE 25.1 0.0 0.1
14:33 12.7 10.8 88 1022.0 13.6 S 25.1 0.0 0.1
14:34 12.7 10.8 88 1022.0 19.7 SE 25.1 0.0 0.1
14:35 12.6 10.7 88 1022.0 17.4 SW 25.1 0.0 0.1
14:36 12.6 10.7 88 1021.9 16.8 SW 25.1 0.0 0.1
14:37 12.6 10.7 88 1021.9 11.4 E 25.1 0.0 0.1
14:38 12.6 10.8 89 1022.1 19.0 S 25.1 0.0 0.1
14:39 12.6 10.7 88 1022.1 15.9 S 25.1 0.0 0.1
14:40 12.6 10.8 89 1021.9 15.9 S 25.1 0.0 0.1
14:41 12.5 10.7 89 1021.8 16.8 S 19.7 0.0 0.1
14:43 12.5 10.7 89 1022.0 13.6 SE 19.7 0.0 0.1
14:44 12.5 10.7 89 1022.1 18.3 S 19.0 0.0 0.1
14:45 12.4 10.6 89 1021.9 15.2 S 19.0 0.0 0.1
14:46 12.4 10.6 89 1022.2 15.9 S 19.0 0.0 0.1
14:47 12.4 10.6 89 1022.1 19.0 SE 19.0 0.0 0.1
14:48 12.4 10.6 89 1022.0 19.7 S 19.7 0.0 0.1
14:49 12.4 10.6 89 1022.0 19.7 S 19.7 0.0 0.1
14:50 12.4 10.6 89 1021.9 18.3 SE 19.7 0.0 0.1
14:51 12.4 10.6 89 1021.9 16.8 S 19.7 0.0 0.1
14:52 12.3 10.5 89 1021.9 13.6 S 19.7 0.0 0.1
14:53 12.4 10.6 89 1022.0 19.7 S 19.7 0.0 0.1
14:54 12.3 10.7 90 1021.8 15.9 S 19.7 0.0 0.1
14:55 12.3 10.7 90 1021.8 19.7 SE 19.7 0.0 0.1
14:56 12.3 10.7 90 1022.0 16.8 S 19.7 0.0 0.1
14:57 12.3 10.7 90 1021.8 10.7 S 19.7 0.0 0.1
14:59 12.2 10.6 90 1021.8 18.3 S 19.7 0.0 0.1
15:00 12.2 10.6 90 1021.8 18.3 S 19.7 0.0 0.1
15:01 12.2 10.6 90 1021.8 15.9 SE 19.7 0.0 0.1
15:02 12.2 10.6 90 1021.8 18.3 S 19.7 0.0 0.1
15:03 12.2 10.6 90 1021.7 11.4 S 19.7 0.0 0.1
15:04 12.2 10.8 91 1021.8 20.6 S 20.6 0.0 0.1
15:05 12.2 10.8 91 1021.8 20.6 S 20.6 0.0 0.1
15:06 12.2 10.8 91 1021.6 15.9 SE 20.6 0.0 0.1
15:07 12.1 10.7 91 1021.7 15.2 S 20.6 0.0 0.1
15:08 12.1 10.7 91 1021.6 15.9 S 20.6 0.0 0.1
15:09 12.1 10.7 91 1021.6 15.9 S 20.6 0.0 0.1
15:10 12.1 10.7 91 1021.8 19.7 SE 20.6 0.0 0.1
15:11 12.1 10.7 91 1021.8 24.4 S 24.4 0.0 0.1
15:12 12.1 10.7 91 1021.7 15.9 S 24.4 0.0 0.1
15:13 12.1 10.7 91 1021.7 14.5 S 24.4 0.0 0.1
15:14 12.1 10.7 91 1021.7 20.6 SE 24.4 0.0 0.1
15:15 12.1 10.7 91 1021.6 16.8 S 24.4 0.0 0.1
15:16 12.1 10.7 91 1021.7 15.2 S 24.4 0.0 0.1
15:17 12.1 10.8 92 1021.5 15.9 S 24.4 0.0 0.1
15:18 12.1 10.8 92 1021.7 13.6 S 24.4 0.0 0.1
15:20 12.1 10.8 92 1021.7 16.8 SE 24.4 0.0 0.1
15:21 12.1 10.8 92 1021.7 19.0 S 20.6 0.0 0.1
15:22 12.1 10.8 92 1021.7 17.4 S 20.6 0.0 0.1
15:23 12.1 10.8 92 1021.7 14.5 SE 20.6 0.0 0.1
15:24 12.1 10.8 92 1021.8 14.5 WSW 20.6 0.0 0.1
15:25 12.1 10.8 92 1021.7 13.6 S 20.6 0.0 0.1
15:26 12.1 10.8 92 1021.7 13.0 S 20.6 0.0 0.1
15:27 12.1 10.8 92 1021.7 15.9 SE 20.6 0.0 0.1
15:28 12.1 10.8 92 1021.8 11.4 SE 20.6 0.0 0.1
15:29 12.1 10.8 92 1021.8 19.0 SE 20.6 0.0 0.1
15:30 12.1 10.8 92 1021.7 19.0 S 19.7 0.0 0.1
15:31 12.1 10.8 92 1021.7 15.9 S 19.7 0.0 0.1
15:32 12.0 10.7 92 1021.7 14.5 S 19.7 0.0 0.1
15:33 12.0 10.7 92 1021.9 15.2 S 19.7 0.0 0.1
15:34 12.0 10.7 92 1021.8 11.4 S 19.7 0.0 0.1
15:36 12.0 10.7 92 1021.9 19.7 S 19.7 0.0 0.1
15:37 12.0 10.7 92 1021.9 16.8 S 19.7 0.0 0.1
15:38 12.0 10.7 92 1021.8 16.8 S 19.7 0.0 0.1
15:39 11.9 10.6 92 1021.9 18.3 SE 19.7 0.0 0.1
15:40 11.9 10.6 92 1021.8 14.5 S 19.7 0.0 0.1
15:41 11.9 10.6 92 1021.9 18.3 SE 19.7 0.0 0.1
15:42 11.9 10.6 92 1021.9 12.1 SE 19.7 0.0 0.1
15:43 11.9 10.6 92 1022.0 12.1 SW 19.7 0.0 0.1
15:44 11.8 10.5 92 1021.9 14.5 S 19.7 0.0 0.1
15:45 11.8 10.5 92 1021.9 15.9 S 19.7 0.0 0.1
15:46 11.8 10.5 92 1022.1 13.0 SE 19.7 0.0 0.1
15:47 11.8 10.5 92 1021.9 15.2 SE 18.3 0.0 0.1
15:48 11.8 10.5 92 1021.9 15.9 S 18.3 0.0 0.1
15:49 11.7 10.4 92 1021.8 15.9 S 18.3 0.0 0.1
15:50 11.7 10.4 92 1022.0 16.8 SE 18.3 0.0 0.1
15:52 11.7 10.4 92 1021.9 15.2 S 18.3 0.0 0.1
15:53 11.7 10.4 92 1022.0 11.4 SE 18.3 0.0 0.1
15:54 11.7 10.4 92 1022.0 15.2 SE 18.3 0.0 0.1
15:55 11.7 10.4 92 1021.9 15.9 S 16.8 0.0 0.1
15:56 11.7 10.4 92 1022.0 13.6 S 16.8 0.0 0.1
15:57 11.7 10.4 92 1021.8 10.7 S 16.8 0.0 0.1
15:58 11.7 10.4 92 1022.0 12.1 SE 16.8 0.0 0.1
15:59 11.7 10.4 92 1021.9 14.5 S 16.8 0.0 0.1
16:00 11.7 10.4 92 1022.0 14.5 S 16.8 0.0 0.1
16:01 11.7 10.6 93 1021.9 12.1 S 16.8 0.0 0.1
16:02 11.7 10.6 93 1021.8 11.4 S 15.9 0.0 0.1
16:03 11.7 10.6 93 1022.0 12.1 S 15.9 0.0 0.1
16:04 11.7 10.6 93 1021.9 13.6 S 15.9 0.0 0.1
16:05 11.7 10.6 93 1021.9 11.4 S 15.9 0.0 0.1
16:06 11.7 10.6 93 1021.9 16.8 SE 16.8 0.0 0.1
16:07 11.7 10.6 93 1022.0 15.2 S 16.8 0.0 0.1
16:09 11.7 10.6 93 1021.8 13.0 S 16.8 0.0 0.1
16:10 11.7 10.6 93 1022.0 15.2 SE 16.8 0.0 0.1
16:11 11.7 10.6 93 1021.8 14.5 SE 16.8 0.0 0.1
16:12 11.7 10.6 93 1021.9 22.1 S 22.1 0.0 0.1
16:13 11.7 10.6 93 1021.8 16.8 S 22.1 0.0 0.1
16:14 11.7 10.6 93 1021.8 13.6 SE 22.1 0.0 0.1
16:15 11.7 10.6 93 1021.8 13.6 SE 22.1 0.0 0.1
16:16 11.7 10.6 93 1022.0 11.4 S 22.1 0.0 0.1
16:17 11.7 10.8 94 1021.9 15.2 S 22.1 0.0 0.1
16:18 11.7 10.8 94 1022.0 15.2 S 22.1 0.0 0.1
16:19 11.7 10.8 94 1022.1 18.3 S 22.1 0.0 0.1
16:20 11.7 10.8 94 1022.1 15.9 S 22.1 0.0 0.1
16:21 11.7 10.8 94 1022.0 17.4 S 22.1 0.0 0.1
16:22 11.6 10.7 94 1022.1 15.9 SE 22.1 0.0 0.1
16:23 11.6 10.7 94 1022.0 17.4 SE 18.3 0.0 0.1
16:24 11.6 10.7 94 1022.0 17.4 S 19.0 0.0 0.1
16:25 11.6 10.7 94 1022.0 13.0 S 19.0 0.0 0.1
16:27 11.6 10.7 94 1022.1 13.6 S 19.0 0.0 0.1
16:28 11.6 10.7 94 1021.8 13.6 SE 19.0 0.0 0.1
16:29 11.6 10.7 94 1022.1 16.8 S 19.0 0.0 0.1
16:30 11.6 10.7 94 1022.0 12.1 S 19.0 0.0 0.1
16:31 11.6 10.7 94 1022.0 12.1 S 19.0 0.0 0.1
16:32 11.6 10.7 94 1021.9 13.6 S 19.0 0.0 0.1
16:33 11.6 10.7 94 1021.9 15.9 S 19.0 0.0 0.1
16:34 11.6 10.7 94 1022.0 16.8 E 17.4 0.0 0.1
16:35 11.6 10.7 94 1022.0 13.6 SW 16.8 0.0 0.1
16:36 11.6 10.7 94 1021.9 13.0 SE 16.8 0.0 0.1
16:37 11.6 10.7 94 1022.1 11.4 SE 16.8 0.0 0.1
16:38 11.6 10.7 94 1022.0 15.2 SE 16.8 0.0 0.1
16:39 11.6 10.7 94 1022.1 14.5 S 16.8 0.0 0.1
16:40 11.5 10.6 94 1021.9 15.2 S 16.8 0.0 0.1
16:41 11.6 10.7 94 1022.1 14.5 SE 16.8 0.0 0.1
16:42 11.5 10.6 94 1021.9 13.6 S 16.8 0.0 0.1
16:43 11.5 10.6 94 1022.0 12.1 SE 16.8 0.0 0.1
16:44 11.5 10.6 94 1022.0 11.4 S 15.2 0.0 0.1
16:46 11.5 10.6 94 1022.0 17.4 S 17.4 0.0 0.1
16:47 11.5 10.6 94 1022.1 17.4 S 17.4 0.0 0.1
16:48 11.5 10.7 95 1022.1 15.2 S 17.4 0.0 0.1
16:49 11.5 10.7 95 1022.2 15.2 S 17.4 0.0 0.1
16:50 11.5 10.7 95 1022.2 14.5 SE 17.4 0.0 0.1
16:51 11.5 10.7 95 1022.1 10.7 SE 17.4 0.0 0.1
16:52 11.5 10.7 95 1022.1 15.9 SE 17.4 0.0 0.1
16:53 11.5 10.7 95 1022.1 13.0 S 17.4 0.0 0.1
16:54 11.5 10.7 95 1022.0 13.0 S 17.4 0.0 0.1
16:55 11.5 10.7 95 1022.0 15.2 SE 17.4 0.0 0.1
16:56 11.5 10.7 95 1022.0 11.4 S 17.4 0.0 0.1
16:57 11.5 10.7 95 1022.1 13.6 S 17.4 0.0 0.1
16:58 11.5 10.7 95 1022.0 11.4 SE 17.4 0.0 0.1
16:59 11.5 10.7 95 1022.2 11.4 S 15.9 0.0 0.1
17:00 11.5 10.7 95 1022.0 13.0 S 15.9 0.0 0.1
17:01 11.5 10.7 95 1021.9 15.2 SE 15.9 0.0 0.1
17:03 11.5 10.7 95 1021.9 14.5 SE 15.9 0.0 0.1
17:04 11.5 10.7 95 1021.9 13.6 S 15.9 0.0 0.1
17:05 11.5 10.7 95 1022.0 16.8 S 16.8 0.0 0.1
17:06 11.5 10.7 95 1022.0 13.0 SE 16.8 0.0 0.1
17:07 11.5 10.7 95 1022.1 10.7 SE 16.8 0.0 0.1
17:09 11.5 10.7 95 1021.9 15.9 SSW 16.8 0.0 0.1
17:10 11.5 10.7 95 1022.0 17.4 S 17.4 0.0 0.1
17:11 11.5 10.7 95 1022.1 19.7 S 19.7 0.0 0.1
17:12 11.5 10.7 95 1022.0 20.6 S 20.6 0.0 0.1
17:13 11.5 10.7 95 1022.1 20.6 S 20.6 0.0 0.1
17:14 11.6 10.8 95 1021.9 20.6 S 20.6 0.0 0.1
17:15 11.5 10.7 95 1021.8 13.0 S 20.6 0.0 0.1
17:16 11.5 10.7 95 1021.9 18.3 S 20.6 0.0 0.1
17:17 11.5 10.7 95 1022.0 16.8 SE 20.6 0.0 0.1
17:18 11.6 10.8 95 1021.9 13.0 S 20.6 0.0 0.1
17:19 11.6 10.8 95 1021.9 19.0 SE 20.6 0.0 0.1
17:20 11.6 10.8 95 1021.9 13.6 S 20.6 0.0 0.1
17:21 11.6 10.8 95 1021.8 15.9 SE 20.6 0.0 0.1
17:22 11.6 10.8 95 1021.8 12.1 SE 20.6 0.0 0.1
17:23 11.6 10.8 95 1021.8 10.7 NNE 20.6 0.0 0.1
17:24 11.6 10.8 95 1021.8 13.6 SSE 19.0 0.0 0.1
17:25 11.6 10.8 95 1021.9 16.8 SE 19.0 0.0 0.1
17:27 11.6 10.8 95 1021.8 13.6 SE 19.0 0.0 0.1
17:28 11.6 10.8 95 1021.9 13.6 S 19.0 0.0 0.1
17:29 11.6 10.8 95 1022.0 16.8 S 16.8 0.0 0.1
17:30 11.6 10.8 95 1021.8 16.8 S 16.8 0.0 0.1
17:31 11.6 10.8 95 1021.9 15.2 SE 19.0 0.0 0.1
17:32 11.6 10.8 95 1022.0 22.8 S 22.8 0.0 0.1
17:33 11.6 10.8 95 1022.0 22.8 S 22.8 0.0 0.1
17:34 11.6 10.8 95 1021.7 13.6 SE 22.8 0.0 0.1
17:35 11.6 11.0 96 1021.8 18.3 SE 22.8 0.0 0.1
17:36 11.6 11.0 96 1021.7 15.9 S 22.8 0.0 0.1
17:37 11.6 11.0 96 1021.9 16.8 S 22.8 0.0 0.1
17:38 11.6 11.0 96 1021.8 11.4 SE 22.8 0.0 0.1
17:39 11.6 11.0 96 1021.9 10.7 E 22.8 0.0 0.1
17:40 11.6 11.0 96 1022.0 17.4 SE 22.8 0.0 0.1
17:41 11.6 11.0 96 1022.0 15.2 S 22.8 0.0 0.1
17:42 11.6 11.0 96 1022.0 9.2 S 22.8 0.0 0.1
17:43 11.6 11.0 96 1022.1 13.0 SE 18.3 0.0 0.1
17:44 11.6 11.0 96 1022.2 11.4 S 18.3 0.0 0.1
17:45 11.6 10.8 95 1022.0 11.4 S 17.4 0.0 0.1
17:46 11.6 11.0 96 1022.0 12.1 SSE 17.4 0.0 0.1
17:47 11.6 11.0 96 1021.8 14.5 S 17.4 0.0 0.1
17:49 11.6 11.0 96 1022.0 24.4 S 24.4 0.0 0.1
17:50 11.6 11.0 96 1022.0 13.6 SE 24.4 0.0 0.1
17:51 11.6 11.0 96 1021.9 15.2 S 24.4 0.0 0.1
17:52 11.6 11.0 96 1021.9 15.9 S 24.4 0.0 0.1
17:53 11.6 11.0 96 1021.9 18.3 SE 24.4 0.0 0.1
17:54 11.6 11.0 96 1022.0 15.9 S 24.4 0.0 0.1
17:55 11.6 11.0 96 1022.0 16.8 S 24.4 0.0 0.1
17:56 11.6 11.0 96 1022.1 15.2 S 24.4 0.0 0.1
17:57 11.6 11.0 96 1022.1 15.2 S 24.4 0.0 0.1
17:58 11.6 11.0 96 1022.0 12.1 SE 24.4 0.0 0.1
17:59 11.6 11.0 96 1021.9 16.8 S 24.4 0.0 0.1
18:00 11.6 11.0 96 1022.1 17.4 E 18.3 0.0 0.1
18:01 11.6 11.0 96 1022.0 17.4 E 18.3 0.0 0.1
18:02 11.6 11.0 96 1021.8 17.4 E 18.3 0.0 0.1
18:03 11.6 11.0 96 1021.7 17.4 E 18.3 0.0 0.1
18:04 11.6 11.0 96 1021.7 17.4 E 17.4 0.0 0.1
18:05 11.6 11.0 96 1021.8 17.4 E 17.4 0.0 0.1
18:06 11.6 11.0 96 1021.7 18.3 S 18.3 0.0 0.1
18:07 11.6 11.0 96 1021.6 15.2 SE 18.3 0.0 0.1
18:08 11.6 11.0 96 1021.9 12.1 SE 18.3 0.0 0.1
18:09 11.6 11.0 96 1021.8 13.0 SE 18.3 0.0 0.1
18:10 11.6 11.0 96 1021.7 12.1 E 18.3 0.0 0.1
18:11 11.6 11.0 96 1021.7 15.2 SE 18.3 0.0 0.1
18:13 11.6 11.0 96 1021.6 15.9 S 18.3 0.0 0.1
18:14 11.6 11.0 96 1021.7 14.5 SE 18.3 0.0 0.1
18:15 11.6 11.0 96 1021.8 14.5 SE 18.3 0.0 0.1
18:16 11.6 11.0 96 1021.8 19.0 S 19.0 0.0 0.1
18:17 11.6 11.0 96 1021.7 18.3 SE 19.0 0.0 0.1
18:18 11.6 11.0 96 1021.6 14.5 S 19.0 0.0 0.1
18:19 11.6 11.0 96 1021.7 13.6 S 19.0 0.0 0.1
18:20 11.6 11.0 96 1021.5 14.5 SE 19.0 0.0 0.1
18:21 11.6 11.0 96 1021.7 19.0 S 19.0 0.0 0.1
18:22 11.6 11.0 96 1021.6 15.2 SE 19.0 0.0 0.1
18:23 11.6 11.0 96 1021.6 15.9 S 19.0 0.0 0.1
18:24 11.6 11.0 96 1021.5 16.8 S 19.0 0.0 0.1
18:25 11.6 11.0 96 1021.7 15.9 S 19.0 0.0 0.1
18:26 11.6 11.0 96 1021.7 18.3 SW 19.0 0.0 0.1
18:27 11.6 11.0 96 1021.7 15.2 SE 19.0 0.0 0.1
18:28 11.6 11.0 96 1021.6 15.9 SE 19.0 0.0 0.1
18:29 11.6 11.0 96 1021.7 17.4 S 19.0 0.0 0.1
18:30 11.6 11.0 96 1021.6 15.9 S 19.0 0.0 0.1
18:31 11.6 11.0 96 1021.6 15.9 WSW 19.0 0.0 0.1
18:32 11.6 11.0 96 1021.7 13.6 S 19.0 0.0 0.1
18:33 11.6 11.0 96 1021.8 18.3 S 19.0 0.0 0.1
18:34 11.6 11.0 96 1021.8 15.9 S 19.0 0.0 0.1
18:35 11.6 11.0 96 1021.6 15.9 SW 19.0 0.0 0.1
18:36 11.6 11.0 96 1021.8 15.2 SE 19.0 0.0 0.1
18:38 11.6 11.0 96 1021.7 17.4 SE 19.0 0.0 0.1
18:39 11.6 11.0 96 1021.8 15.9 S 18.3 0.0 0.1
18:40 11.6 11.0 96 1021.6 10.7 S 18.3 0.0 0.1
18:41 11.6 11.0 96 1021.6 13.0 SW 18.3 0.0 0.1
18:42 11.6 11.0 96 1021.7 14.5 S 18.3 0.0 0.1
18:43 11.6 11.0 96 1021.7 14.5 SW 17.4 0.0 0.1
18:44 11.6 11.0 96 1021.7 16.8 S 17.4 0.0 0.1
18:45 11.6 11.0 96 1021.7 16.8 S 17.4 0.0 0.1
18:46 11.6 11.0 96 1021.6 15.2 SE 17.4 0.0 0.1
18:47 11.6 11.0 96 1021.8 15.2 SW 17.4 0.0 0.1
18:48 11.6 11.0 96 1021.7 19.7 S 19.7 0.0 0.1
18:49 11.6 11.0 96 1021.6 15.2 S 21.3 0.0 0.1
18:50 11.6 11.0 96 1021.7 15.2 SE 21.3 0.0 0.1
18:51 11.6 11.0 96 1021.7 17.4 SE 21.3 0.0 0.1
18:52 11.6 11.0 96 1021.8 16.8 WNW 21.3 0.0 0.1
18:53 11.6 11.0 96 1021.7 15.9 S 21.3 0.0 0.1
18:54 11.6 11.0 96 1021.8 14.5 S 21.3 0.0 0.1
18:55 11.6 11.0 96 1021.7 13.6 SE 21.3 0.0 0.1
18:56 11.6 11.0 96 1021.7 13.6 S 21.3 0.0 0.1
18:57 11.6 11.0 96 1021.8 12.1 S 21.3 0.0 0.1
18:58 11.7 11.1 96 1021.8 17.4 S 21.3 0.0 0.1
18:59 11.6 11.0 96 1021.7 22.8 SE 22.8 0.0 0.1
19:00 11.6 11.0 96 1021.6 22.8 SE 22.8 0.0 0.1
19:01 11.6 11.0 96 1021.5 16.8 S 22.8 0.0 0.1
19:03 11.6 11.0 96 1021.6 15.9 SE 22.8 0.0 0.1
19:04 11.6 11.0 96 1021.5 15.2 SE 22.8 0.0 0.1
19:05 11.6 11.0 96 1021.6 19.0 SE 22.8 0.0 0.1
19:06 11.6 11.0 96 1021.6 12.1 SE 22.8 0.0 0.1
19:07 11.6 11.0 96 1021.4 16.8 SW 22.8 0.0 0.1
19:08 11.6 11.0 96 1021.6 15.9 SE 22.8 0.0 0.1
19:09 11.6 11.0 96 1021.6 13.6 S 22.8 0.0 0.1
19:10 11.6 11.0 96 1021.7 13.6 S 22.8 0.0 0.1
19:11 11.6 11.0 96 1021.6 13.6 S 19.0 0.0 0.1
19:12 11.6 11.0 96 1021.8 15.9 S 19.0 0.0 0.1
19:14 11.6 11.0 96 1021.7 14.5 S 19.7 0.0 0.1
19:15 11.6 11.0 96 1021.6 17.4 S 19.7 0.0 0.1
19:16 11.6 11.0 96 1021.6 20.6 S 20.6 0.0 0.1
19:17 11.6 11.0 96 1021.7 19.0 SE 20.6 0.0 0.1
19:18 11.6 11.0 96 1021.7 22.1 S 22.1 0.0 0.1
19:19 11.6 11.0 96 1021.7 22.1 S 22.1 0.0 0.1
19:20 11.6 11.0 96 1021.5 17.4 S 22.1 0.0 0.1
19:21 11.6 11.0 96 1021.6 13.0 SE 22.1 0.0 0.1
19:22 11.6 11.0 96 1021.6 19.0 S 22.1 0.0 0.1
19:23 11.6 11.0 96 1021.7 12.1 S 22.1 0.0 0.1
19:24 11.6 11.0 96 1021.5 19.7 SE 22.1 0.0 0.1
19:25 11.6 11.0 96 1021.5 17.4 S 22.1 0.0 0.1
19:26 11.6 11.0 96 1021.6 15.9 SE 22.1 0.0 0.1
19:27 11.6 11.0 96 1021.6 18.3 S 22.1 0.0 0.1
19:28 11.6 11.0 96 1021.6 15.2 S 22.1 0.0 0.1
19:29 11.6 11.0 96 1021.5 14.5 S 22.1 0.0 0.1
19:30 11.6 11.0 96 1021.5 13.6 SE 19.7 0.0 0.1
19:31 11.5 10.9 96 1021.5 22.1 S 22.1 0.0 0.1
19:32 11.5 10.9 96 1021.5 15.9 S 22.1 0.0 0.1
19:33 11.5 10.9 96 1021.6 16.8 S 22.1 0.0 0.1
19:34 11.5 10.9 96 1021.4 15.9 SE 22.1 0.0 0.1
19:35 11.5 10.9 96 1021.4 16.8 S 22.1 0.0 0.1
19:37 11.5 10.9 96 1021.4 19.0 SE 22.1 0.0 0.1
19:38 11.5 10.9 96 1021.6 13.0 S 22.1 0.0 0.1
19:39 11.5 10.9 96 1021.6 17.4 S 22.1 0.0 0.1
19:40 11.5 10.9 96 1021.5 15.9 SE 22.1 0.0 0.1
19:41 11.5 10.9 96 1021.4 19.0 SE 22.1 0.0 0.1
19:42 11.5 10.9 96 1021.3 18.3 SSW 19.0 0.0 0.1
19:43 11.5 10.9 96 1021.4 19.0 S 19.0 0.0 0.1
19:44 11.5 10.9 96 1021.4 17.4 S 19.0 0.0 0.1
19:45 11.5 10.9 96 1021.4 19.0 S 19.0 0.0 0.1
19:46 11.5 10.9 96 1021.5 18.3 S 19.0 0.0 0.1
19:47 11.5 10.9 96 1021.4 18.3 S 19.0 0.0 0.1
19:48 11.5 10.7 95 1021.4 15.9 S 19.0 0.0 0.1
19:49 11.5 10.9 96 1021.5 15.2 SSE 19.0 0.0 0.1
19:50 11.5 10.7 95 1021.5 14.5 S 19.0 0.0 0.1
19:51 11.5 10.9 96 1021.5 13.0 S 19.0 0.0 0.1
19:52 11.5 10.7 95 1021.5 18.3 S 19.0 0.0 0.1
19:53 11.5 10.7 95 1021.4 19.0 S 19.0 0.0 0.1
19:54 11.5 10.7 95 1021.4 20.6 S 20.6 0.0 0.1
19:55 11.5 10.7 95 1021.4 21.3 SE 21.3 0.0 0.1
19:56 11.5 10.7 95 1021.4 14.5 SE 21.3 0.0 0.1
19:57 11.5 10.7 95 1021.5 16.8 S 21.3 0.0 0.1
19:58 11.5 10.7 95 1021.5 15.9 S 21.3 0.0 0.1
19:59 11.5 10.7 95 1021.4 18.3 S 21.3 0.0 0.1
20:00 11.5 10.7 95 1021.4 18.3 S 21.3 0.0 0.1
20:01 11.5 10.7 95 1021.4 19.0 S 21.3 0.0 0.1
20:03 11.5 10.7 95 1021.6 19.0 SE 21.3 0.0 0.1
20:04 11.5 10.7 95 1021.5 17.4 SE 21.3 0.0 0.1
20:05 11.5 10.7 95 1021.5 19.0 SE 20.6 0.0 0.1
20:06 11.5 10.7 95 1021.4 20.6 S 20.6 0.0 0.1
20:07 11.5 10.7 95 1021.4 19.0 S 20.6 0.0 0.1
20:08 11.5 10.7 95 1021.4 19.0 S 20.6 0.0 0.1
20:09 11.5 10.7 95 1021.4 18.3 S 20.6 0.0 0.1
20:10 11.5 10.7 95 1021.3 18.3 S 20.6 0.0 0.1
20:11 11.5 10.7 95 1021.3 16.8 S 20.6 0.0 0.1
20:12 11.5 10.7 95 1021.4 16.8 S 20.6 0.0 0.1
20:13 11.5 10.7 95 1021.3 16.8 SE 20.6 0.0 0.1
20:14 11.5 10.7 95 1021.3 15.9 SE 20.6 0.0 0.1
20:15 11.5 10.7 95 1021.4 13.6 SSE 20.6 0.0 0.1
20:16 11.5 10.7 95 1021.4 20.6 SE 20.6 0.0 0.1
20:17 11.5 10.7 95 1021.4 15.9 S 21.3 0.0 0.1
20:18 11.5 10.7 95 1021.4 22.1 SE 22.1 0.0 0.1
20:19 11.5 10.7 95 1021.2 18.3 SE 22.1 0.0 0.1
20:20 11.5 10.7 95 1021.3 13.6 SE 22.1 0.0 0.1
20:21 11.5 10.7 95 1021.4 22.1 SE 22.1 0.0 0.1
20:22 11.5 10.7 95 1021.3 18.3 S 22.1 0.0 0.1
20:23 11.5 10.7 95 1021.3 15.9 SE 22.1 0.0 0.1
20:24 11.5 10.7 95 1021.4 16.8 SE 22.1 0.0 0.1
20:26 11.4 10.6 95 1021.2 15.2 SE 22.1 0.0 0.1
20:27 11.4 10.6 95 1021.1 19.0 S 22.1 0.0 0.1
20:28 11.4 10.6 95 1021.1 15.2 SE 22.1 0.0 0.1
20:29 11.4 10.6 95 1021.3 18.3 S 22.1 0.0 0.1
20:30 11.4 10.6 95 1021.1 22.8 SE 22.8 0.0 0.1
20:31 11.4 10.6 95 1021.2 17.4 SE 22.8 0.0 0.1
20:32 11.4 10.6 95 1021.1 20.6 SE 22.8 0.0 0.1
20:33 11.4 10.6 95 1021.4 20.6 SE 23.5 0.0 0.1
20:34 11.4 10.6 95 1021.3 19.7 SE 23.5 0.0 0.1
20:35 11.4 10.6 95 1021.3 19.0 S 23.5 0.0 0.1
20:36 11.4 10.6 95 1021.3 19.7 S 23.5 0.0 0.1
20:37 11.4 10.6 95 1021.3 17.4 SE 23.5 0.0 0.1
20:38 11.4 10.6 95 1021.2 14.5 SE 23.5 0.0 0.1
20:39 11.4 10.6 95 1021.3 15.9 SE 23.5 0.0 0.1
20:40 11.5 10.7 95 1021.3 17.4 NE 23.5 0.0 0.1
20:41 11.4 10.6 95 1021.0 17.4 S 23.5 0.0 0.1
20:42 11.4 10.6 95 1021.2 17.4 SE 23.5 0.0 0.1
20:43 11.4 10.6 95 1021.2 17.4 S 19.7 0.0 0.1
20:44 11.4 10.6 95 1021.2 17.4 S 19.7 0.0 0.1
20:45 11.4 10.6 95 1021.3 15.9 S 19.7 0.0 0.1
20:46 11.4 10.6 95 1021.1 22.8 SE 25.9 0.0 0.1
20:47 11.4 10.6 95 1021.1 18.3 S 25.9 0.0 0.1
20:48 11.4 10.6 95 1021.1 17.4 S 25.9 0.0 0.1
20:49 11.4 10.6 95 1021.3 19.0 SE 25.9 0.0 0.1
20:51 11.5 10.7 95 1021.2 22.1 S 25.9 0.0 0.1
20:52 11.4 10.6 95 1021.3 18.3 SE 25.9 0.0 0.1
20:53 11.4 10.6 95 1021.2 24.4 S 25.9 0.0 0.1
20:54 11.4 10.6 95 1021.3 22.1 SW 25.9 0.0 0.1
20:55 11.4 10.6 95 1021.3 22.1 SW 25.9 0.0 0.1
20:56 11.4 10.6 95 1021.3 15.2 SE 25.9 0.0 0.1
20:57 11.5 10.7 95 1021.2 27.3 SE 27.3 0.0 0.1
20:58 11.5 10.7 95 1021.6 18.3 SE 27.3 0.0 0.1
20:59 11.4 10.6 95 1021.2 21.3 SW 27.3 0.0 0.1
21:00 11.5 10.7 95 1021.3 20.6 S 27.3 0.0 0.1
21:01 11.5 10.6 94 1021.4 17.4 S 27.3 0.0 0.1
21:02 11.5 10.6 94 1021.2 17.4 SE 27.3 0.0 0.1
21:03 11.5 10.6 94 1021.2 18.3 S 27.3 0.0 0.1
21:04 11.5 10.6 94 1021.3 18.3 S 27.3 0.0 0.1
21:05 11.5 10.6 94 1021.3 18.3 S 27.3 0.0 0.1
21:06 11.5 10.6 94 1021.5 17.4 S 27.3 0.0 0.1
21:07 11.5 10.6 94 1021.3 19.7 S 27.3 0.0 0.1
21:08 11.5 10.6 94 1021.2 15.2 S 21.3 0.0 0.1
21:09 11.5 10.6 94 1021.5 17.4 S 20.6 0.0 0.1
21:10 11.5 10.6 94 1021.3 16.8 S 20.6 0.0 0.1
21:11 11.5 10.6 94 1021.3 13.0 SE 19.7 0.0 0.1
21:12 11.5 10.6 94 1021.4 15.2 S 19.7 0.0 0.1
21:13 11.5 10.6 94 1021.2 18.3 S 19.7 0.0 0.1
21:14 11.5 10.6 94 1021.3 19.0 S 19.7 0.0 0.1
21:15 11.5 10.6 94 1021.2 14.5 S 19.7 0.0 0.1
21:16 11.5 10.6 94 1021.3 19.7 SE 21.3 0.0 0.1
21:17 11.5 10.6 94 1021.2 19.7 SE 21.3 0.0 0.1
21:18 11.5 10.6 94 1021.2 17.4 S 21.3 0.0 0.1
21:19 11.5 10.6 94 1021.2 17.4 S 21.3 0.0 0.1
21:20 11.5 10.6 94 1021.1 23.5 S 23.5 0.0 0.1
21:21 11.5 10.6 94 1021.2 19.0 SE 23.5 0.0 0.1
21:22 11.6 10.7 94 1021.0 16.8 SE 23.5 0.0 0.1
21:23 11.5 10.6 94 1021.1 22.1 S 23.5 0.0 0.1
21:24 11.5 10.6 94 1021.1 16.8 S 23.5 0.0 0.1
21:25 11.5 10.6 94 1021.0 19.7 SE 23.5 0.0 0.1
21:26 11.6 10.7 94 1021.1 22.1 SSW 23.5 0.0 0.1
21:27 11.5 10.6 94 1021.1 16.8 SE 23.5 0.0 0.1
21:28 11.6 10.7 94 1021.0 19.0 SE 23.5 0.0 0.1
21:29 11.6 10.7 94 1021.1 20.6 SE 23.5 0.0 0.1
21:30 11.6 10.7 94 1021.0 18.3 S 22.1 0.0 0.1
21:32 11.6 10.7 94 1021.0 20.6 S 22.1 0.0 0.1
21:33 11.6 10.7 94 1021.0 14.5 S 22.1 0.0 0.1
21:34 11.6 10.7 94 1021.1 16.8 SE 22.1 0.0 0.1
21:35 11.6 10.7 94 1020.9 21.3 SE 22.1 0.0 0.1
21:36 11.6 10.7 94 1020.9 19.0 S 22.1 0.0 0.1
21:37 11.6 10.7 94 1021.2 24.4 SE 24.4 0.0 0.1
21:38 11.6 10.7 94 1021.0 14.5 S 24.4 0.0 0.1
21:39 11.6 10.7 94 1021.0 23.5 S 24.4 0.0 0.1
21:40 11.6 10.7 94 1021.0 19.7 S 24.4 0.0 0.1
21:41 11.6 10.7 94 1021.1 18.3 S 25.1 0.0 0.1
21:42 11.6 10.7 94 1020.9 22.1 S 25.1 0.0 0.1
21:43 11.6 10.7 94 1021.0 16.8 S 25.1 0.0 0.1
21:44 11.6 10.7 94 1021.0 19.0 S 25.1 0.0 0.1
21:45 11.6 10.7 94 1021.0 19.0 S 25.1 0.0 0.1
21:46 11.6 10.7 94 1020.9 19.7 S 25.1 0.0 0.1
21:47 11.6 10.7 94 1021.0 22.8 S 25.1 0.0 0.1
21:48 11.6 10.7 94 1020.8 17.4 S 25.1 0.0 0.1
21:49 11.6 10.7 94 1021.0 20.6 S 25.1 0.0 0.1
21:50 11.6 10.7 94 1021.0 24.4 E 25.1 0.0 0.1
21:51 11.6 10.7 94 1021.0 15.9 S 24.4 0.0 0.1
21:52 11.6 10.7 94 1020.9 19.7 SE 24.4 0.0 0.1
21:53 11.6 10.7 94 1021.0 19.0 SE 24.4 0.0 0.1
21:54 11.6 10.7 94 1021.0 18.3 SE 24.4 0.0 0.1
21:55 11.6 10.7 94 1021.0 25.1 S 25.1 0.0 0.1
21:56 11.6 10.7 94 1020.8 23.5 SE 25.1 0.0 0.1
21:57 11.6 10.7 94 1021.0 21.3 S 25.1 0.0 0.1
21:59 11.6 10.8 95 1020.8 19.7 S 25.9 0.0 0.1
22:00 11.6 10.8 95 1020.8 19.7 S 25.9 0.0 0.1
22:01 11.6 10.8 95 1020.9 18.3 SE 25.9 0.0 0.1
22:02 11.6 10.8 95 1020.9 18.3 S 25.9 0.0 0.1
22:03 11.6 10.8 95 1020.9 21.3 SE 25.9 0.0 0.1
22:04 11.6 10.8 95 1020.8 20.6 E 25.9 0.0 0.1
22:05 11.7 10.9 95 1020.9 23.5 S 25.9 0.0 0.1
22:06 11.7 10.9 95 1020.8 23.5 SE 25.9 0.0 0.1
22:07 11.7 10.9 95 1021.0 20.6 SE 25.9 0.0 0.1
22:08 11.7 10.9 95 1020.8 23.5 SE 25.9 0.0 0.1
22:09 11.7 10.9 95 1020.8 19.0 SSW 23.5 0.0 0.1
22:10 11.7 10.9 95 1020.8 16.8 SE 23.5 0.0 0.1
22:11 11.7 10.9 95 1020.8 19.0 S 23.5 0.0 0.1
22:12 11.7 10.9 95 1020.7 18.3 S 23.5 0.0 0.1
22:13 11.7 10.9 95 1020.8 20.6 S 23.5 0.0 0.1
22:14 11.7 10.9 95 1020.8 19.0 SE 23.5 0.0 0.1
22:15 11.7 10.9 95 1020.7 24.4 S 24.4 0.0 0.1
22:16 11.7 10.9 95 1020.8 22.8 S 24.4 0.0 0.1
22:17 11.7 10.9 95 1020.7 21.3 S 24.4 0.0 0.1
22:18 11.7 10.9 95 1020.7 23.5 SE 24.4 0.0 0.1
22:19 11.7 10.9 95 1020.7 20.6 SE 24.4 0.0 0.1
22:20 11.7 10.9 95 1020.6 21.3 SE 24.4 0.0 0.1
22:21 11.7 10.9 95 1020.7 19.0 SSW 24.4 0.0 0.1
22:22 11.7 10.9 95 1020.8 19.7 S 24.4 0.0 0.1
22:23 11.7 10.9 95 1020.6 24.4 SW 24.4 0.0 0.1
22:24 11.7 10.8 94 1020.6 23.5 S 24.4 0.0 0.1
22:25 11.7 10.9 95 1020.7 18.3 S 24.4 0.0 0.1
22:27 11.7 10.8 94 1020.6 21.3 SSW 24.4 0.0 0.1
22:28 11.7 10.8 94 1020.8 24.4 S 24.4 0.0 0.1
22:29 11.7 10.8 94 1020.6 22.1 SE 24.4 0.0 0.1
22:30 11.7 10.8 94 1020.7 19.7 SE 24.4 0.0 0.1
22:31 11.7 10.8 94 1020.6 22.8 SE 24.4 0.0 0.1
22:32 11.7 10.8 94 1020.8 20.6 SSE 24.4 0.0 0.1
22:33 11.7 10.8 94 1020.5 19.0 SW 24.4 0.0 0.1
22:34 11.7 10.8 94 1020.6 17.4 SE 24.4 0.0 0.1
22:35 11.8 10.9 94 1020.7 21.3 S 24.4 0.0 0.1
22:36 11.7 10.8 94 1020.7 20.6 S 24.4 0.0 0.1
22:37 11.7 10.8 94 1020.7 19.7 SE 24.4 0.0 0.1
22:38 11.7 10.8 94 1020.8 25.9 E 25.9 0.0 0.1
22:39 11.7 10.8 94 1020.8 15.9 S 25.9 0.0 0.1
22:40 11.7 10.8 94 1020.7 16.8 S 25.9 0.0 0.1
22:41 11.7 10.8 94 1020.7 17.4 S 25.9 0.0 0.1
22:42 11.7 10.9 95 1020.7 27.3 SE 27.3 0.0 0.1
22:43 11.8 11.0 95 1020.7 21.3 S 27.3 0.0 0.1
22:44 11.7 10.9 95 1020.5 19.7 S 27.3 0.0 0.1
22:45 11.7 10.9 95 1020.7 23.5 SE 27.3 0.0 0.1
22:46 11.7 10.9 95 1020.5 20.6 S 27.3 0.0 0.1
22:47 11.7 10.9 95 1020.7 22.8 SW 27.3 0.0 0.1
22:48 11.7 10.9 95 1020.6 22.8 S 27.3 0.0 0.1
22:49 11.7 10.9 95 1020.7 21.3 S 27.3 0.0 0.1
22:50 11.7 10.9 95 1020.6 25.1 SE 27.3 0.0 0.1
22:51 11.7 10.9 95 1020.6 20.6 S 27.3 0.0 0.1
22:52 11.8 11.0 95 1020.6 23.5 S 25.9 0.0 0.1
22:54 11.8 11.0 95 1020.6 22.8 SE 25.9 0.0 0.1
22:55 11.8 11.0 95 1020.5 19.7 S 25.9 0.0 0.1
22:56 11.7 10.9 95 1020.5 19.7 S 25.9 0.0 0.1
22:57 11.7 10.9 95 1020.6 20.6 S 25.9 0.0 0.1
22:58 11.7 10.9 95 1020.6 23.5 SE 25.9 0.0 0.1
22:59 11.7 10.9 95 1020.8 22.8 SW 25.9 0.0 0.1
23:00 11.7 10.9 95 1020.7 19.7 SW 25.9 0.0 0.1
23:01 11.7 10.9 95 1020.5 20.6 SE 23.5 0.0 0.1
23:02 11.7 10.9 95 1020.7 17.4 S 23.5 0.0 0.1
23:03 11.7 10.9 95 1020.7 14.5 S 23.5 0.0 0.1
23:04 11.7 10.9 95 1020.7 22.8 S 23.5 0.0 0.1
23:05 11.7 10.9 95 1020.8 28.2 S 28.2 0.0 0.1
23:06 11.7 10.9 95 1020.7 19.7 SE 28.2 0.0 0.1
23:07 11.7 10.9 95 1020.6 18.3 SE 28.2 0.0 0.1
23:08 11.7 10.9 95 1020.5 22.8 S 28.2 0.0 0.1
23:09 11.7 10.8 94 1020.7 21.3 SE 28.2 0.0 0.1
23:10 11.7 10.9 95 1020.8 18.3 S 28.2 0.0 0.1
23:11 11.7 10.8 94 1020.7 22.8 S 28.2 0.0 0.1
23:12 11.7 10.9 95 1020.6 22.1 S 28.2 0.0 0.1
23:13 11.7 10.9 95 1020.4 22.8 S 28.2 0.0 0.1
23:14 11.7 10.8 94 1020.5 20.6 S 28.2 0.0 0.1
23:15 11.7 10.8 94 1020.5 22.1 S 28.2 0.0 0.1
23:16 11.7 10.9 95 1020.5 25.1 S 25.1 0.0 0.1
23:17 11.7 10.8 94 1020.4 16.8 S 25.1 0.0 0.1
23:19 11.7 10.8 94 1020.7 21.3 S 25.1 0.0 0.1
23:20 11.7 10.8 94 1020.5 27.3 S 27.3 0.0 0.1
23:21 11.7 10.8 94 1020.7 25.1 S 27.3 0.0 0.1
23:22 11.7 10.8 94 1020.7 25.1 S 27.3 0.0 0.1
23:23 11.7 10.8 94 1020.6 17.4 S 27.3 0.0 0.1
23:24 11.7 10.8 94 1020.4 18.3 S 27.3 0.0 0.1
23:25 11.7 10.8 94 1020.5 22.1 S 27.3 0.0 0.1
23:26 11.7 10.8 94 1020.4 22.8 S 27.3 0.0 0.1
23:27 11.7 10.8 94 1020.3 21.3 SE 27.3 0.0 0.1
23:28 11.7 10.8 94 1020.6 22.1 SE 27.3 0.0 0.1
23:29 11.7 10.8 94 1020.5 21.3 SE 27.3 0.0 0.1
23:30 11.7 10.8 94 1020.4 23.5 SE 27.3 0.0 0.1
23:31 11.7 10.8 94 1020.4 22.8 S 25.1 0.0 0.1
23:32 11.8 10.9 94 1020.5 19.7 SE 25.1 0.0 0.1
23:33 11.7 10.8 94 1020.5 19.0 S 23.5 0.0 0.1
23:34 11.7 10.8 94 1020.5 16.8 S 23.5 0.0 0.1
23:35 11.7 10.8 94 1020.4 26.6 S 26.6 0.0 0.1
23:36 11.7 10.8 94 1020.3 19.0 SE 26.6 0.0 0.1
23:37 11.7 10.8 94 1020.3 20.6 S 26.6 0.0 0.1
23:38 11.7 10.8 94 1020.3 16.8 S 26.6 0.0 0.1
23:39 11.7 10.8 94 1020.3 17.4 S 26.6 0.0 0.1
23:40 11.7 10.8 94 1020.4 19.0 S 26.6 0.0 0.1
23:41 11.7 10.8 94 1020.2 23.5 S 26.6 0.0 0.1
23:42 11.7 10.9 95 1020.3 19.7 S 26.6 0.0 0.1
23:43 11.7 10.8 94 1020.4 18.3 S 26.6 0.0 0.1
23:44 11.7 10.8 94 1020.3 20.6 SE 26.6 0.0 0.1
23:46 11.7 10.8 94 1020.3 19.7 S 25.1 0.0 0.1
23:47 11.7 10.8 94 1020.4 25.9 S 25.9 0.0 0.1
23:48 11.7 10.8 94 1020.4 21.3 S 25.9 0.0 0.1
23:49 11.7 10.8 94 1020.4 17.4 S 25.9 0.0 0.1
23:50 11.7 10.8 94 1020.3 22.8 S 25.9 0.0 0.1
23:51 11.7 10.8 94 1020.4 24.4 S 25.9 0.0 0.1
23:52 11.7 10.8 94 1020.5 27.3 S 27.3 0.0 0.1
23:53 11.7 10.8 94 1020.3 28.2 SE 28.2 0.0 0.1
23:54 11.7 10.8 94 1020.2 19.7 SE 28.2 0.0 0.1
23:55 11.7 10.8 94 1020.3 17.4 SE 28.2 0.0 0.1
23:56 11.7 10.8 94 1020.3 28.2 S 28.2 0.0 0.1
23:57 11.7 10.8 94 1020.3 25.1 S 28.2 0.0 0.1
23:58 11.7 10.8 94 1020.3 23.5 S 28.2 0.0 0.1
23:59 11.7 10.8 94 1020.3 23.5 S 28.2 0.0 0.1

UK - WEATHER STATION TOPSITES - UK World Weather Websites

This is a private weather station, never base important decisions or events on data from this weather station. Although every effort has been made to make the data as accurate as possible it does not meet MetOffice standards. It is proved as a guide of local weather conditions. We accept no liability for any loss which may arise from use of the data.

Copyright © Carnkie Weather 2009 - 2019.